| time (UTC) | temp F | wind direction | speed MPH | gust MPH | rain 1hr in | rain 24hr in | rain mn in | humidity % | barometer mb |
| 20260510160703 | 63 | 259 | 4.0 | 6.0 | 0.00 | 0.00 | 0.00 | 55 | 1014.2 |
| 20260510160603 | 63 | 265 | 2.0 | 6.0 | 0.00 | 0.00 | 0.00 | 55 | 1014.2 |
| 20260510160502 | 63 | 255 | 1.0 | 6.0 | 0.00 | 0.00 | 0.00 | 57 | 1014.2 |
| 20260510160401 | 63 | 279 | 1.0 | 4.0 | 0.00 | 0.00 | 0.00 | 57 | 1014.1 |
| 20260510160304 | 62 | 279 | 1.0 | 4.0 | 0.00 | 0.00 | 0.00 | 58 | 1014.2 |
| 20260510160202 | 62 | 248 | 1.0 | 4.0 | 0.00 | 0.00 | 0.00 | 58 | 1014.1 |
| 20260510160147 | 62 | 292 | 0.0 | 4.0 | 0.00 | 0.00 | 0.00 | 59 | 1014.1 |
| 20260510160124 | 62 | 295 | 1.0 | 4.0 | 0.00 | 0.00 | 0.00 | 58 | 1014.2 |
| 20260510155805 | 62 | 0 | 2.0 | 4.0 | 0.00 | 0.00 | 0.00 | 58 | 1014.2 |
| 20260510155702 | 62 | 348 | 2.0 | 4.0 | 0.00 | 0.00 | 0.00 | 58 | 1014.3 |
| 20260510155636 | 62 | 348 | 2.0 | 4.0 | 0.00 | 0.00 | 0.00 | 59 | 1014.3 |
| 20260510155605 | 62 | 289 | 2.0 | 4.0 | 0.00 | 0.00 | 0.00 | 58 | 1014.3 |
| 20260510155554 | 62 | 339 | 3.0 | 4.0 | 0.00 | 0.00 | 0.00 | 58 | 1014.3 |
| 20260510155541 | 62 | 348 | 3.0 | 4.0 | 0.00 | 0.00 | 0.00 | 58 | 1014.3 |
| 20260510155003 | 62 | 306 | 2.0 | 4.0 | 0.00 | 0.00 | 0.00 | 59 | 1014.2 |
| 20260510154902 | 62 | 327 | 2.0 | 4.0 | 0.00 | 0.00 | 0.00 | 59 | 1014.2 |
| 20260510154801 | 62 | 13 | 1.0 | 4.0 | 0.00 | 0.00 | 0.00 | 59 | 1014.2 |
| 20260510154702 | 62 | 331 | 1.0 | 3.0 | 0.00 | 0.00 | 0.00 | 59 | 1014.2 |
| 20260510154602 | 61 | 352 | 2.0 | 3.0 | 0.00 | 0.00 | 0.00 | 58 | 1014.2 |
| 20260510154501 | 61 | 352 | 2.0 | 3.0 | 0.00 | 0.00 | 0.00 | 60 | 1014.2 |
| 20260510154400 | 61 | 348 | 1.0 | 3.0 | 0.00 | 0.00 | 0.00 | 60 | 1014.1 |
| 20260510154300 | 61 | 288 | 1.0 | 3.0 | 0.00 | 0.00 | 0.00 | 59 | 1014.1 |
| 20260510154200 | 61 | 291 | 2.0 | 3.0 | 0.00 | 0.00 | 0.00 | 58 | 1014.1 |
| 20260510154058 | 61 | 11 | 2.0 | 3.0 | 0.00 | 0.00 | 0.00 | 59 | 1014.0 |
| 20260510153958 | 61 | 15 | 1.0 | 4.0 | 0.00 | 0.00 | 0.00 | 59 | 1014.0 |
| 20260510153857 | 61 | 338 | 1.0 | 4.0 | 0.00 | 0.00 | 0.00 | 60 | 1014.1 |
| 20260510153757 | 61 | 352 | 1.0 | 4.0 | 0.00 | 0.00 | 0.00 | 60 | 1014.1 |
| 20260510153655 | 61 | 309 | 1.0 | 4.0 | 0.00 | 0.00 | 0.00 | 60 | 1014.1 |
| 20260510153556 | 61 | 331 | 2.0 | 4.0 | 0.00 | 0.00 | 0.00 | 59 | 1014.1 |
| 20260510153455 | 61 | 348 | 2.0 | 4.0 | 0.00 | 0.00 | 0.00 | 59 | 1014.2 |
| 20260510153350 | 61 | 322 | 1.0 | 4.0 | 0.00 | 0.00 | 0.00 | 59 | 1014.2 |
| 20260510153250 | 61 | 299 | 1.0 | 4.0 | 0.00 | 0.00 | 0.00 | 60 | 1014.2 |
| 20260510153150 | 60 | 302 | 2.0 | 4.0 | 0.00 | 0.00 | 0.00 | 60 | 1014.2 |
| 20260510153049 | 60 | 327 | 2.0 | 4.0 | 0.00 | 0.00 | 0.00 | 60 | 1014.3 |
| 20260510152945 | 60 | 324 | 2.0 | 3.0 | 0.00 | 0.00 | 0.00 | 60 | 1014.3 |
| 20260510152845 | 60 | 293 | 1.0 | 3.0 | 0.00 | 0.00 | 0.00 | 59 | 1014.4 |
| 20260510152745 | 60 | 264 | 1.0 | 3.0 | 0.00 | 0.00 | 0.00 | 59 | 1014.3 |
| 20260510152644 | 60 | 263 | 1.0 | 3.0 | 0.00 | 0.00 | 0.00 | 60 | 1014.3 |
| 20260510152543 | 60 | 330 | 2.0 | 3.0 | 0.00 | 0.00 | 0.00 | 60 | 1014.2 |
| 20260510152445 | 60 | 348 | 2.0 | 3.0 | 0.00 | 0.00 | 0.00 | 60 | 1014.1 |
| 20260510152342 | 60 | 339 | 2.0 | 3.0 | 0.00 | 0.00 | 0.00 | 60 | 1014.1 |
| 20260510152241 | 60 | 11 | 1.0 | 3.0 | 0.00 | 0.00 | 0.00 | 61 | 1014.1 |
| 20260510152141 | 60 | 11 | 1.0 | 3.0 | 0.00 | 0.00 | 0.00 | 61 | 1014.0 |
| 20260510152041 | 60 | 90 | 1.0 | 3.0 | 0.00 | 0.00 | 0.00 | 60 | 1014.0 |
| 20260510151940 | 60 | 105 | 1.0 | 3.0 | 0.00 | 0.00 | 0.00 | 61 | 1014.0 |
| 20260510151839 | 59 | 65 | 0.0 | 3.0 | 0.00 | 0.00 | 0.00 | 61 | 1014.0 |
| 20260510151732 | 59 | 85 | 1.0 | 3.0 | 0.00 | 0.00 | 0.00 | 61 | 1013.9 |
| 20260510151632 | 59 | 71 | 2.0 | 3.0 | 0.00 | 0.00 | 0.00 | 61 | 1014.1 |
| 20260510151529 | 59 | 37 | 1.0 | 3.0 | 0.00 | 0.00 | 0.00 | 62 | 1014.0 |
| 20260510151430 | 59 | 28 | 1.0 | 3.0 | 0.00 | 0.00 | 0.00 | 62 | 1014.0 |
| 20260510151345 | 59 | 34 | 1.0 | 3.0 | 0.00 | 0.00 | 0.00 | 62 | 1014.0 |
| 20260510151328 | 59 | 68 | 1.0 | 3.0 | 0.00 | 0.00 | 0.00 | 62 | 1014.1 |
| 20260510151319 | 58 | 67 | 1.0 | 3.0 | 0.00 | 0.00 | 0.00 | 62 | 1014.1 |
| 20260510150929 | 58 | 24 | 2.0 | 3.0 | 0.00 | 0.00 | 0.00 | 62 | 1014.1 |
| 20260510150830 | 58 | 352 | 2.0 | 3.0 | 0.00 | 0.00 | 0.00 | 62 | 1014.1 |
| 20260510150730 | 58 | 20 | 1.0 | 2.0 | 0.00 | 0.00 | 0.00 | 63 | 1014.2 |
| 20260510150629 | 58 | 347 | 0.0 | 2.0 | 0.00 | 0.00 | 0.00 | 63 | 1014.2 |
| 20260510150613 | 58 | 307 | 0.0 | 3.0 | 0.00 | 0.00 | 0.00 | 64 | 1014.2 |
| 20260510150550 | 58 | 336 | 0.0 | 3.0 | 0.00 | 0.00 | 0.00 | 64 | 1014.2 |
| 20260510150228 | 57 | 302 | 0.0 | 3.0 | 0.00 | 0.00 | 0.00 | 64 | 1014.3 |
| 20260510150128 | 57 | 302 | 0.0 | 3.0 | 0.00 | 0.00 | 0.00 | 64 | 1014.3 |
| 20260510150029 | 57 | 313 | 1.0 | 3.0 | 0.00 | 0.00 | 0.00 | 64 | 1014.3 |
| 20260510145929 | 57 | 325 | 2.0 | 3.0 | 0.00 | 0.00 | 0.00 | 64 | 1014.4 |
| 20260510145829 | 57 | 333 | 2.0 | 3.0 | 0.00 | 0.00 | 0.00 | 64 | 1014.4 |
| 20260510145730 | 57 | 19 | 2.0 | 3.0 | 0.00 | 0.00 | 0.00 | 64 | 1014.4 |
| 20260510145607 | 57 | 15 | 2.0 | 3.0 | 0.00 | 0.00 | 0.00 | 64 | 1014.4 |
| 20260510145516 | 57 | 5 | 1.0 | 3.0 | 0.00 | 0.00 | 0.00 | 65 | 1014.5 |
| 20260510145406 | 57 | 329 | 0.0 | 3.0 | 0.00 | 0.00 | 0.00 | 65 | 1014.5 |
| 20260510145354 | 57 | 294 | 0.0 | 3.0 | 0.00 | 0.00 | 0.00 | 65 | 1014.4 |
| 20260510145341 | 57 | 294 | 0.0 | 3.0 | 0.00 | 0.00 | 0.00 | 65 | 1014.4 |
| 20260510145332 | 56 | 336 | 1.0 | 3.0 | 0.00 | 0.00 | 0.00 | 66 | 1014.4 |
| 20260510145321 | 56 | 336 | 1.0 | 3.0 | 0.00 | 0.00 | 0.00 | 65 | 1014.4 |
| 20260510145258 | 56 | 298 | 2.0 | 3.0 | 0.00 | 0.00 | 0.00 | 65 | 1014.5 |
| 20260510145244 | 56 | 346 | 2.0 | 3.0 | 0.00 | 0.00 | 0.00 | 65 | 1014.5 |
| 20260510144753 | 56 | 341 | 2.0 | 4.0 | 0.00 | 0.00 | 0.00 | 65 | 1014.4 |
| 20260510144208 | 56 | 298 | 1.0 | 4.0 | 0.00 | 0.00 | 0.00 | 66 | 1014.4 |
| 20260510144102 | 56 | 284 | 1.0 | 4.0 | 0.00 | 0.00 | 0.00 | 65 | 1014.4 |
| 20260510144012 | 56 | 278 | 1.0 | 4.0 | 0.00 | 0.00 | 0.00 | 66 | 1014.4 |
| 20260510143856 | 56 | 282 | 2.0 | 4.0 | 0.00 | 0.00 | 0.00 | 66 | 1014.4 |
| 20260510143750 | 56 | 277 | 2.0 | 4.0 | 0.00 | 0.00 | 0.00 | 66 | 1014.4 |
| 20260510143645 | 56 | 265 | 2.0 | 4.0 | 0.00 | 0.00 | 0.00 | 65 | 1014.4 |
| 20260510143547 | 56 | 248 | 2.0 | 4.0 | 0.00 | 0.00 | 0.00 | 66 | 1014.4 |
| 20260510143444 | 56 | 271 | 3.0 | 4.0 | 0.00 | 0.00 | 0.00 | 65 | 1014.4 |
| 20260510143348 | 56 | 263 | 1.0 | 4.0 | 0.00 | 0.00 | 0.00 | 66 | 1014.3 |
| 20260510143243 | 56 | 285 | 1.0 | 3.0 | 0.00 | 0.00 | 0.00 | 66 | 1014.3 |
| 20260510143219 | 56 | 264 | 1.0 | 3.0 | 0.00 | 0.00 | 0.00 | 67 | 1014.3 |
| 20260510143207 | 56 | 294 | 2.0 | 3.0 | 0.00 | 0.00 | 0.00 | 67 | 1014.3 |
| 20260510142834 | 56 | 268 | 2.0 | 3.0 | 0.00 | 0.00 | 0.00 | 67 | 1014.3 |
| 20260510142735 | 56 | 273 | 2.0 | 3.0 | 0.00 | 0.00 | 0.00 | 67 | 1014.3 |
| 20260510142636 | 56 | 287 | 2.0 | 4.0 | 0.00 | 0.00 | 0.00 | 67 | 1014.4 |
| 20260510142529 | 55 | 288 | 2.0 | 4.0 | 0.00 | 0.00 | 0.00 | 67 | 1014.3 |
| 20260510142429 | 55 | 309 | 1.0 | 4.0 | 0.00 | 0.00 | 0.00 | 68 | 1014.4 |
| 20260510142330 | 55 | 313 | 0.0 | 4.0 | 0.00 | 0.00 | 0.00 | 68 | 1014.3 |
| 20260510142231 | 55 | 274 | 0.0 | 4.0 | 0.00 | 0.00 | 0.00 | 68 | 1014.3 |
| 20260510142129 | 55 | 299 | 1.0 | 4.0 | 0.00 | 0.00 | 0.00 | 68 | 1014.3 |
| 20260510142030 | 55 | 292 | 1.0 | 4.0 | 0.00 | 0.00 | 0.00 | 67 | 1014.3 |
| 20260510142002 | 55 | 257 | 1.0 | 4.0 | 0.00 | 0.00 | 0.00 | 68 | 1014.4 |
| 20260510141947 | 55 | 288 | 2.0 | 4.0 | 0.00 | 0.00 | 0.00 | 68 | 1014.3 |
| 20260510141936 | 55 | 300 | 1.0 | 4.0 | 0.00 | 0.00 | 0.00 | 68 | 1014.3 |
| 20260510141705 | 55 | 291 | 2.0 | 4.0 | 0.00 | 0.00 | 0.00 | 67 | 1014.2 |
| 20260510141326 | 55 | 288 | 2.0 | 4.0 | 0.00 | 0.00 | 0.00 | 68 | 1014.3 |
| 20260510141220 | 55 | 304 | 1.0 | 4.0 | 0.00 | 0.00 | 0.00 | 68 | 1014.3 |
| 20260510141120 | 55 | 281 | 1.0 | 4.0 | 0.00 | 0.00 | 0.00 | 68 | 1014.3 |
| 20260510141013 | 55 | 282 | 2.0 | 4.0 | 0.00 | 0.00 | 0.00 | 68 | 1014.3 |
| 20260510140913 | 55 | 283 | 2.0 | 4.0 | 0.00 | 0.00 | 0.00 | 68 | 1014.4 |
| 20260510140812 | 55 | 292 | 2.0 | 4.0 | 0.00 | 0.00 | 0.00 | 68 | 1014.3 |
| 20260510140714 | 55 | 260 | 1.0 | 4.0 | 0.00 | 0.00 | 0.00 | 67 | 1014.3 |
| 20260510140611 | 55 | 281 | 2.0 | 4.0 | 0.00 | 0.00 | 0.00 | 68 | 1014.2 |
| 20260510140550 | 55 | 278 | 2.0 | 4.0 | 0.00 | 0.00 | 0.00 | 68 | 1014.2 |
| 20260510140527 | 54 | 315 | 2.0 | 4.0 | 0.00 | 0.00 | 0.00 | 68 | 1014.2 |
| 20260510140207 | 54 | 260 | 2.0 | 4.0 | 0.00 | 0.00 | 0.00 | 68 | 1014.2 |
| 20260510140148 | 54 | 284 | 1.0 | 4.0 | 0.00 | 0.00 | 0.00 | 69 | 1014.2 |
| 20260510140133 | 54 | 298 | 1.0 | 4.0 | 0.00 | 0.00 | 0.00 | 69 | 1014.2 |
| 20260510135802 | 54 | 287 | 1.0 | 4.0 | 0.00 | 0.00 | 0.00 | 69 | 1014.2 |
| 20260510135703 | 54 | 352 | 2.0 | 4.0 | 0.00 | 0.00 | 0.00 | 70 | 1014.2 |
| 20260510135647 | 54 | 261 | 2.0 | 4.0 | 0.00 | 0.00 | 0.00 | 69 | 1014.2 |
| 20260510135636 | 53 | 259 | 1.0 | 4.0 | 0.00 | 0.00 | 0.00 | 70 | 1014.1 |
| 20260510135612 | 53 | 292 | 1.0 | 3.0 | 0.00 | 0.00 | 0.00 | 70 | 1014.1 |
| 20260510135559 | 53 | 306 | 1.0 | 3.0 | 0.00 | 0.00 | 0.00 | 71 | 1014.0 |
| 20260510135548 | 53 | 313 | 1.0 | 3.0 | 0.00 | 0.00 | 0.00 | 71 | 1014.0 |
| 20260510135537 | 53 | 311 | 0.0 | 3.0 | 0.00 | 0.00 | 0.00 | 71 | 1013.9 |
| 20260510135258 | 53 | 220 | 0.0 | 0.0 | 0.00 | 0.00 | 0.00 | 72 | 1013.9 |
| 20260510134502 | 52 | 220 | 0.0 | 0.0 | 0.00 | 0.00 | 0.00 | 73 | 1013.9 |
| 20260510134405 | 52 | 220 | 0.0 | 0.0 | 0.00 | 0.00 | 0.00 | 74 | 1013.8 |
| 20260510134302 | 52 | 220 | 0.0 | 0.0 | 0.00 | 0.00 | 0.00 | 74 | 1013.8 |
| 20260510134203 | 51 | 220 | 0.0 | 0.0 | 0.00 | 0.00 | 0.00 | 74 | 1013.8 |
| 20260510134123 | 51 | 220 | 0.0 | 0.0 | 0.00 | 0.00 | 0.00 | 74 | 1013.8 |
| 20260510134001 | 51 | 220 | 0.0 | 0.0 | 0.00 | 0.00 | 0.00 | 75 | 1013.8 |
| 20260510133902 | 51 | 220 | 0.0 | 0.0 | 0.00 | 0.00 | 0.00 | 75 | 1013.8 |
| 20260510133804 | 51 | 220 | 0.0 | 0.0 | 0.00 | 0.00 | 0.00 | 76 | 1013.8 |
| 20260510133700 | 51 | 220 | 0.0 | 0.0 | 0.00 | 0.00 | 0.00 | 75 | 1013.8 |
| 20260510133604 | 51 | 220 | 0.0 | 0.0 | 0.00 | 0.00 | 0.00 | 75 | 1013.8 |
| 20260510133542 | 51 | 220 | 0.0 | 0.0 | 0.00 | 0.00 | 0.00 | 76 | 1013.8 |
| 20260510133517 | 51 | 220 | 0.0 | 0.0 | 0.00 | 0.00 | 0.00 | 76 | 1013.8 |
| 20260510133231 | 50 | 220 | 0.0 | 0.0 | 0.00 | 0.00 | 0.00 | 76 | 1013.8 |
| 20260510133221 | 50 | 220 | 0.0 | 0.0 | 0.00 | 0.00 | 0.00 | 76 | 1013.8 |
| 20260510132928 | 50 | 220 | 0.0 | 0.0 | 0.00 | 0.00 | 0.00 | 77 | 1013.8 |
| 20260510132920 | 50 | 220 | 0.0 | 0.0 | 0.00 | 0.00 | 0.00 | 77 | 1013.8 |
| 20260510132623 | 50 | 220 | 0.0 | 0.0 | 0.00 | 0.00 | 0.00 | 77 | 1013.8 |
| 20260510132611 | 50 | 220 | 0.0 | 0.0 | 0.00 | 0.00 | 0.00 | 77 | 1013.8 |
| 20260510132550 | 50 | 220 | 0.0 | 0.0 | 0.00 | 0.00 | 0.00 | 77 | 1013.8 |
| 20260510132538 | 50 | 220 | 0.0 | 0.0 | 0.00 | 0.00 | 0.00 | 77 | 1013.8 |
| 20260510132001 | 50 | 220 | 0.0 | 0.0 | 0.00 | 0.00 | 0.00 | 77 | 1013.8 |
| 20260510131930 | 50 | 220 | 0.0 | 0.0 | 0.00 | 0.00 | 0.00 | 77 | 1013.8 |
| 20260510131917 | 50 | 220 | 0.0 | 0.0 | 0.00 | 0.00 | 0.00 | 77 | 1013.8 |
| 20260510131557 | 50 | 220 | 0.0 | 0.0 | 0.00 | 0.00 | 0.00 | 78 | 1013.8 |
| 20260510131446 | 50 | 220 | 0.0 | 0.0 | 0.00 | 0.00 | 0.00 | 78 | 1013.8 |
| 20260510131337 | 50 | 220 | 0.0 | 0.0 | 0.00 | 0.00 | 0.00 | 78 | 1013.8 |
| 20260510131233 | 50 | 220 | 0.0 | 0.0 | 0.00 | 0.00 | 0.00 | 78 | 1013.8 |
| 20260510131152 | 50 | 220 | 0.0 | 0.0 | 0.00 | 0.00 | 0.00 | 78 | 1013.7 |
| 20260510131142 | 50 | 220 | 0.0 | 0.0 | 0.00 | 0.00 | 0.00 | 78 | 1013.7 |
| 20260510131131 | 50 | 220 | 0.0 | 0.0 | 0.00 | 0.00 | 0.00 | 78 | 1013.7 |
| 20260510130758 | 50 | 220 | 0.0 | 0.0 | 0.00 | 0.00 | 0.00 | 78 | 1013.7 |
| 20260510130748 | 50 | 220 | 0.0 | 0.0 | 0.00 | 0.00 | 0.00 | 78 | 1013.7 |
| 20260510130433 | 50 | 220 | 0.0 | 0.0 | 0.00 | 0.00 | 0.00 | 77 | 1013.6 |
| 20260510130332 | 50 | 220 | 0.0 | 0.0 | 0.00 | 0.00 | 0.00 | 77 | 1013.6 |
| 20260510130231 | 50 | 220 | 0.0 | 0.0 | 0.00 | 0.00 | 0.00 | 77 | 1013.6 |
| 20260510130132 | 50 | 220 | 0.0 | 0.0 | 0.00 | 0.00 | 0.00 | 77 | 1013.5 |
| 20260510130031 | 50 | 220 | 0.0 | 0.0 | 0.00 | 0.00 | 0.00 | 77 | 1013.5 |
| 20260510125931 | 50 | 220 | 0.0 | 0.0 | 0.00 | 0.00 | 0.00 | 77 | 1013.5 |
| 20260510125833 | 50 | 220 | 0.0 | 0.0 | 0.00 | 0.00 | 0.00 | 77 | 1013.4 |
| 20260510125730 | 50 | 220 | 0.0 | 0.0 | 0.00 | 0.00 | 0.00 | 77 | 1013.5 |
| 20260510125631 | 50 | 220 | 0.0 | 0.0 | 0.00 | 0.00 | 0.00 | 76 | 1013.4 |
| 20260510125530 | 50 | 220 | 0.0 | 0.0 | 0.00 | 0.00 | 0.00 | 76 | 1013.5 |
| 20260510125431 | 50 | 220 | 0.0 | 0.0 | 0.00 | 0.00 | 0.00 | 76 | 1013.5 |
| 20260510125328 | 50 | 220 | 0.0 | 0.0 | 0.00 | 0.00 | 0.00 | 76 | 1013.5 |
| 20260510125232 | 50 | 220 | 0.0 | 0.0 | 0.00 | 0.00 | 0.00 | 76 | 1013.6 |
| 20260510125219 | 50 | 220 | 0.0 | 0.0 | 0.00 | 0.00 | 0.00 | 76 | 1013.6 |
| 20260510125210 | 50 | 220 | 0.0 | 0.0 | 0.00 | 0.00 | 0.00 | 76 | 1013.6 |
| 20260510124931 | 50 | 220 | 0.0 | 0.0 | 0.00 | 0.00 | 0.00 | 75 | 1013.6 |
| 20260510124922 | 50 | 220 | 0.0 | 0.0 | 0.00 | 0.00 | 0.00 | 75 | 1013.6 |
| 20260510124912 | 50 | 220 | 0.0 | 0.0 | 0.00 | 0.00 | 0.00 | 75 | 1013.6 |
| 20260510124900 | 50 | 220 | 0.0 | 0.0 | 0.00 | 0.00 | 0.00 | 75 | 1013.6 |
| 20260510124839 | 50 | 220 | 0.0 | 0.0 | 0.00 | 0.00 | 0.00 | 74 | 1013.6 |
| 20260510124354 | 50 | 220 | 0.0 | 0.0 | 0.00 | 0.00 | 0.00 | 74 | 1013.6 |
| 20260510124116 | 50 | 220 | 0.0 | 0.0 | 0.00 | 0.00 | 0.00 | 73 | 1013.7 |
| 20260510124107 | 50 | 220 | 0.0 | 0.0 | 0.00 | 0.00 | 0.00 | 73 | 1013.6 |
| 20260510123502 | 51 | 220 | 0.0 | 0.0 | 0.00 | 0.00 | 0.00 | 73 | 1013.6 |
| 20260510123403 | 51 | 220 | 0.0 | 0.0 | 0.00 | 0.00 | 0.00 | 72 | 1013.6 |
| 20260510123305 | 51 | 220 | 0.0 | 0.0 | 0.00 | 0.00 | 0.00 | 72 | 1013.6 |
| 20260510123204 | 51 | 220 | 0.0 | 0.0 | 0.00 | 0.00 | 0.00 | 72 | 1013.6 |
| 20260510123101 | 51 | 220 | 0.0 | 0.0 | 0.00 | 0.00 | 0.00 | 72 | 1013.6 |
| 20260510123043 | 51 | 220 | 0.0 | 0.0 | 0.00 | 0.00 | 0.00 | 72 | 1013.6 |
| 20260510123022 | 51 | 220 | 0.0 | 0.0 | 0.00 | 0.00 | 0.00 | 72 | 1013.6 |
| 20260510122701 | 51 | 220 | 0.0 | 0.0 | 0.00 | 0.00 | 0.00 | 72 | 1013.6 |
| 20260510122603 | 51 | 220 | 0.0 | 0.0 | 0.00 | 0.00 | 0.00 | 71 | 1013.6 |
| 20260510122502 | 51 | 220 | 0.0 | 0.0 | 0.00 | 0.00 | 0.00 | 71 | 1013.6 |
| 20260510122407 | 51 | 220 | 0.0 | 0.0 | 0.00 | 0.00 | 0.00 | 71 | 1013.6 |
| 20260510122329 | 51 | 220 | 0.0 | 0.0 | 0.00 | 0.00 | 0.00 | 70 | 1013.6 |
| 20260510122321 | 51 | 220 | 0.0 | 0.0 | 0.00 | 0.00 | 0.00 | 70 | 1013.5 |
| 20260510122003 | 51 | 220 | 0.0 | 0.0 | 0.00 | 0.00 | 0.00 | 70 | 1013.6 |
| 20260510121942 | 51 | 220 | 0.0 | 0.0 | 0.00 | 0.00 | 0.00 | 70 | 1013.6 |
| 20260510121923 | 51 | 220 | 0.0 | 0.0 | 0.00 | 0.00 | 0.00 | 70 | 1013.6 |
| 20260510121605 | 51 | 220 | 0.0 | 0.0 | 0.00 | 0.00 | 0.00 | 71 | 1013.6 |
| 20260510121500 | 51 | 220 | 0.0 | 0.0 | 0.00 | 0.00 | 0.00 | 70 | 1013.6 |
| 20260510121413 | 51 | 220 | 0.0 | 0.0 | 0.00 | 0.00 | 0.00 | 70 | 1013.5 |
| 20260510121301 | 51 | 220 | 0.0 | 0.0 | 0.00 | 0.00 | 0.00 | 70 | 1013.5 |
| 20260510121207 | 51 | 220 | 0.0 | 0.0 | 0.00 | 0.00 | 0.00 | 70 | 1013.5 |
| 20260510121103 | 51 | 220 | 0.0 | 0.0 | 0.00 | 0.00 | 0.00 | 70 | 1013.6 |
| 20260510121046 | 51 | 220 | 0.0 | 0.0 | 0.00 | 0.00 | 0.00 | 70 | 1013.6 |
| 20260510121033 | 51 | 220 | 0.0 | 0.0 | 0.00 | 0.00 | 0.00 | 70 | 1013.6 |
| 20260510120702 | 51 | 220 | 0.0 | 0.0 | 0.00 | 0.00 | 0.00 | 70 | 1013.6 |
| 20260510120605 | 51 | 220 | 0.0 | 0.0 | 0.00 | 0.00 | 0.00 | 70 | 1013.6 |
| 20260510120501 | 51 | 220 | 0.0 | 0.0 | 0.00 | 0.00 | 0.00 | 70 | 1013.6 |
| 20260510120408 | 51 | 220 | 0.0 | 0.0 | 0.00 | 0.00 | 0.00 | 70 | 1013.6 |
| 20260510120303 | 51 | 220 | 0.0 | 0.0 | 0.00 | 0.00 | 0.00 | 70 | 1013.6 |
| 20260510120229 | 51 | 220 | 0.0 | 0.0 | 0.00 | 0.00 | 0.00 | 70 | 1013.6 |
| 20260510120222 | 51 | 220 | 0.0 | 0.0 | 0.00 | 0.00 | 0.00 | 70 | 1013.7 |
| 20260510115908 | 51 | 220 | 0.0 | 0.0 | 0.00 | 0.00 | 0.00 | 70 | 1013.7 |
| 20260510115802 | 51 | 220 | 0.0 | 0.0 | 0.00 | 0.00 | 0.00 | 71 | 1013.7 |
| 20260510115700 | 51 | 220 | 0.0 | 0.0 | 0.00 | 0.00 | 0.00 | 71 | 1013.7 |
| 20260510115603 | 51 | 220 | 0.0 | 0.0 | 0.00 | 0.00 | 0.00 | 71 | 1013.7 |
| 20260510115505 | 51 | 220 | 0.0 | 0.0 | 0.00 | 0.00 | 0.00 | 71 | 1013.7 |
| 20260510115441 | 51 | 220 | 0.0 | 0.0 | 0.00 | 0.00 | 0.00 | 71 | 1013.7 |
| 20260510115420 | 51 | 220 | 0.0 | 0.0 | 0.00 | 0.00 | 0.00 | 72 | 1013.7 |
| 20260510115134 | 51 | 220 | 0.0 | 0.0 | 0.00 | 0.00 | 0.00 | 72 | 1013.7 |
| 20260510115121 | 50 | 220 | 0.0 | 0.0 | 0.00 | 0.00 | 0.00 | 73 | 1013.7 |
| 20260510114801 | 50 | 220 | 0.0 | 0.0 | 0.00 | 0.00 | 0.00 | 74 | 1013.7 |
| 20260510114701 | 50 | 220 | 0.0 | 0.0 | 0.00 | 0.00 | 0.00 | 74 | 1013.7 |
| 20260510114607 | 50 | 220 | 0.0 | 0.0 | 0.00 | 0.00 | 0.00 | 74 | 1013.7 |
| 20260510114501 | 50 | 220 | 0.0 | 0.0 | 0.00 | 0.00 | 0.00 | 74 | 1013.7 |
| 20260510114404 | 50 | 220 | 0.0 | 0.0 | 0.00 | 0.00 | 0.00 | 74 | 1013.7 |
| 20260510114301 | 50 | 220 | 0.0 | 0.0 | 0.00 | 0.00 | 0.00 | 74 | 1013.7 |
| 20260510114201 | 50 | 220 | 0.0 | 0.0 | 0.00 | 0.00 | 0.00 | 74 | 1013.7 |
| 20260510114101 | 50 | 220 | 0.0 | 0.0 | 0.00 | 0.00 | 0.00 | 74 | 1013.7 |
| 20260510114041 | 50 | 220 | 0.0 | 0.0 | 0.00 | 0.00 | 0.00 | 75 | 1013.7 |
| 20260510114031 | 50 | 220 | 0.0 | 0.0 | 0.00 | 0.00 | 0.00 | 75 | 1013.7 |
| 20260510113700 | 50 | 220 | 0.0 | 0.0 | 0.00 | 0.00 | 0.00 | 75 | 1013.7 |
| 20260510113600 | 50 | 220 | 0.0 | 0.0 | 0.00 | 0.00 | 0.00 | 75 | 1013.7 |
| 20260510113459 | 50 | 220 | 0.0 | 0.0 | 0.00 | 0.00 | 0.00 | 74 | 1013.7 |
| 20260510113357 | 50 | 220 | 0.0 | 0.0 | 0.00 | 0.00 | 0.00 | 74 | 1013.7 |
| 20260510113236 | 50 | 220 | 0.0 | 0.0 | 0.00 | 0.00 | 0.00 | 74 | 1013.7 |
| 20260510113131 | 50 | 220 | 0.0 | 0.0 | 0.00 | 0.00 | 0.00 | 75 | 1013.6 |
| 20260510113031 | 50 | 220 | 0.0 | 0.0 | 0.00 | 0.00 | 0.00 | 75 | 1013.7 |
| 20260510112933 | 50 | 220 | 0.0 | 0.0 | 0.00 | 0.00 | 0.00 | 74 | 1013.7 |
| 20260510112830 | 50 | 220 | 0.0 | 0.0 | 0.00 | 0.00 | 0.00 | 74 | 1013.7 |
| 20260510112805 | 50 | 220 | 0.0 | 0.0 | 0.00 | 0.00 | 0.00 | 74 | 1013.7 |
| 20260510112754 | 50 | 220 | 0.0 | 0.0 | 0.00 | 0.00 | 0.00 | 74 | 1013.7 |
| 20260510112511 | 50 | 220 | 0.0 | 0.0 | 0.00 | 0.00 | 0.00 | 74 | 1013.7 |
| 20260510112450 | 50 | 220 | 0.0 | 0.0 | 0.00 | 0.00 | 0.00 | 74 | 1013.8 |
| 20260510112130 | 51 | 220 | 0.0 | 0.0 | 0.00 | 0.00 | 0.00 | 73 | 1013.8 |
| 20260510112030 | 51 | 220 | 0.0 | 0.0 | 0.00 | 0.00 | 0.00 | 73 | 1013.7 |
| 20260510111931 | 51 | 220 | 0.0 | 0.0 | 0.00 | 0.00 | 0.00 | 73 | 1013.8 |
| 20260510111830 | 51 | 220 | 0.0 | 0.0 | 0.00 | 0.00 | 0.00 | 73 | 1013.7 |
| 20260510111730 | 51 | 220 | 0.0 | 0.0 | 0.00 | 0.00 | 0.00 | 73 | 1013.8 |
| 20260510111701 | 51 | 220 | 0.0 | 0.0 | 0.00 | 0.00 | 0.00 | 73 | 1013.7 |
| 20260510111651 | 51 | 220 | 0.0 | 0.0 | 0.00 | 0.00 | 0.00 | 72 | 1013.8 |
| 20260510111331 | 51 | 220 | 0.0 | 0.0 | 0.00 | 0.00 | 0.00 | 72 | 1013.7 |
| 20260510111229 | 51 | 220 | 0.0 | 0.0 | 0.00 | 0.00 | 0.00 | 72 | 1013.7 |
| 20260510111131 | 51 | 220 | 0.0 | 0.0 | 0.00 | 0.00 | 0.00 | 72 | 1013.8 |
| 20260510111029 | 51 | 220 | 0.0 | 0.0 | 0.00 | 0.00 | 0.00 | 72 | 1013.8 |
| 20260510110949 | 51 | 220 | 0.0 | 0.0 | 0.00 | 0.00 | 0.00 | 72 | 1013.8 |
| 20260510110924 | 51 | 220 | 0.0 | 0.0 | 0.00 | 0.00 | 0.00 | 72 | 1013.8 |
| 20260510110634 | 51 | 220 | 0.0 | 0.0 | 0.00 | 0.00 | 0.00 | 72 | 1013.8 |
| 20260510110506 | 51 | 220 | 0.0 | 0.0 | 0.00 | 0.00 | 0.00 | 72 | 1013.8 |
| 20260510110405 | 51 | 220 | 0.0 | 0.0 | 0.00 | 0.00 | 0.00 | 72 | 1013.8 |
| 20260510110321 | 51 | 220 | 0.0 | 0.0 | 0.00 | 0.00 | 0.00 | 72 | 1013.9 |
| 20260510110311 | 51 | 220 | 0.0 | 0.0 | 0.00 | 0.00 | 0.00 | 72 | 1013.9 |
| 20260510110300 | 51 | 220 | 0.0 | 0.0 | 0.00 | 0.00 | 0.00 | 72 | 1013.9 |
| 20260510110251 | 51 | 220 | 0.0 | 0.0 | 0.00 | 0.00 | 0.00 | 72 | 1013.9 |
| 20260510105701 | 51 | 220 | 0.0 | 0.0 | 0.00 | 0.00 | 0.00 | 72 | 1013.9 |
| 20260510105605 | 51 | 220 | 0.0 | 0.0 | 0.00 | 0.00 | 0.00 | 72 | 1013.9 |
| 20260510105501 | 51 | 220 | 0.0 | 0.0 | 0.00 | 0.00 | 0.00 | 71 | 1013.9 |
| 20260510105402 | 51 | 220 | 0.0 | 0.0 | 0.00 | 0.00 | 0.00 | 71 | 1013.9 |
| 20260510105323 | 51 | 220 | 0.0 | 0.0 | 0.00 | 0.00 | 0.00 | 71 | 1013.9 |
| 20260510105313 | 51 | 220 | 0.0 | 0.0 | 0.00 | 0.00 | 0.00 | 71 | 1013.9 |
| 20260510105306 | 51 | 220 | 0.0 | 0.0 | 0.00 | 0.00 | 0.00 | 70 | 1013.9 |
| 20260510105032 | 51 | 220 | 0.0 | 0.0 | 0.00 | 0.00 | 0.00 | 71 | 1013.9 |
| 20260510104703 | 51 | 220 | 0.0 | 0.0 | 0.00 | 0.00 | 0.00 | 71 | 1013.9 |
| 20260510104604 | 51 | 220 | 0.0 | 0.0 | 0.00 | 0.00 | 0.00 | 71 | 1013.9 |
| 20260510104501 | 52 | 220 | 0.0 | 0.0 | 0.00 | 0.00 | 0.00 | 71 | 1013.8 |
| 20260510104442 | 51 | 220 | 0.0 | 0.0 | 0.00 | 0.00 | 0.00 | 71 | 1013.9 |
| 20260510104417 | 52 | 220 | 0.0 | 0.0 | 0.00 | 0.00 | 0.00 | 70 | 1013.9 |
| 20260510104407 | 52 | 220 | 0.0 | 0.0 | 0.00 | 0.00 | 0.00 | 70 | 1013.9 |
| 20260510104356 | 52 | 220 | 0.0 | 0.0 | 0.00 | 0.00 | 0.00 | 70 | 1013.9 |
| 20260510104125 | 52 | 220 | 0.0 | 0.0 | 0.00 | 0.00 | 0.00 | 70 | 1013.9 |
| 20260510104105 | 52 | 220 | 0.0 | 0.0 | 0.00 | 0.00 | 0.00 | 70 | 1013.9 |
| 20260510103619 | 52 | 220 | 0.0 | 0.0 | 0.00 | 0.00 | 0.00 | 70 | 1013.9 |
| 20260510103257 | 52 | 220 | 0.0 | 0.0 | 0.00 | 0.00 | 0.00 | 70 | 1014.0 |
| 20260510103249 | 52 | 220 | 0.0 | 0.0 | 0.00 | 0.00 | 0.00 | 70 | 1014.0 |
| 20260510102931 | 52 | 220 | 0.0 | 0.0 | 0.00 | 0.00 | 0.00 | 70 | 1013.9 |
| 20260510102835 | 52 | 220 | 0.0 | 0.0 | 0.00 | 0.00 | 0.00 | 69 | 1014.0 |
| 20260510102730 | 52 | 220 | 0.0 | 0.0 | 0.00 | 0.00 | 0.00 | 69 | 1014.0 |
| 20260510102629 | 52 | 220 | 0.0 | 0.0 | 0.00 | 0.00 | 0.00 | 69 | 1014.0 |
| 20260510102554 | 52 | 220 | 0.0 | 0.0 | 0.00 | 0.00 | 0.00 | 69 | 1014.0 |
| 20260510102542 | 52 | 220 | 0.0 | 0.0 | 0.00 | 0.00 | 0.00 | 69 | 1014.0 |
| 20260510102533 | 52 | 220 | 0.0 | 0.0 | 0.00 | 0.00 | 0.00 | 69 | 1014.0 |
| 20260510102251 | 52 | 220 | 0.0 | 0.0 | 0.00 | 0.00 | 0.00 | 69 | 1014.0 |
| 20260510101930 | 52 | 220 | 0.0 | 0.0 | 0.00 | 0.00 | 0.00 | 69 | 1014.0 |
| 20260510101834 | 52 | 220 | 0.0 | 0.0 | 0.00 | 0.00 | 0.00 | 69 | 1014.0 |
| 20260510101729 | 52 | 220 | 0.0 | 0.0 | 0.00 | 0.00 | 0.00 | 69 | 1014.0 |
| 20260510101628 | 52 | 220 | 0.0 | 0.0 | 0.00 | 0.00 | 0.00 | 69 | 1014.0 |
| 20260510101531 | 52 | 220 | 0.0 | 0.0 | 0.00 | 0.00 | 0.00 | 69 | 1014.0 |
| 20260510101422 | 52 | 220 | 0.0 | 0.0 | 0.00 | 0.00 | 0.00 | 69 | 1014.0 |
| 20260510101303 | 52 | 220 | 0.0 | 0.0 | 0.00 | 0.00 | 0.00 | 69 | 1013.9 |
| 20260510101201 | 52 | 220 | 0.0 | 0.0 | 0.00 | 0.00 | 0.00 | 69 | 1014.0 |
| 20260510101106 | 52 | 220 | 0.0 | 0.0 | 0.00 | 0.00 | 0.00 | 69 | 1013.9 |
| 20260510101042 | 52 | 220 | 0.0 | 0.0 | 0.00 | 0.00 | 0.00 | 69 | 1013.9 |
| 20260510101032 | 52 | 220 | 0.0 | 0.0 | 0.00 | 0.00 | 0.00 | 69 | 1014.0 |
| 20260510100706 | 52 | 220 | 0.0 | 0.0 | 0.00 | 0.00 | 0.00 | 69 | 1013.9 |
| 20260510100603 | 52 | 220 | 0.0 | 0.0 | 0.00 | 0.00 | 0.00 | 69 | 1013.9 |
| 20260510100503 | 52 | 220 | 0.0 | 0.0 | 0.00 | 0.00 | 0.00 | 69 | 1013.9 |
| 20260510100424 | 52 | 220 | 0.0 | 0.0 | 0.00 | 0.00 | 0.00 | 69 | 1013.9 |
| 20260510100400 | 52 | 220 | 0.0 | 0.0 | 0.00 | 0.00 | 0.00 | 69 | 1013.9 |
| 20260510100350 | 52 | 220 | 0.0 | 0.0 | 0.00 | 0.00 | 0.00 | 68 | 1013.9 |
| 20260510100003 | 52 | 220 | 0.0 | 0.0 | 0.00 | 0.00 | 0.00 | 68 | 1013.8 |
| 20260510095906 | 52 | 220 | 0.0 | 0.0 | 0.00 | 0.00 | 0.00 | 68 | 1013.9 |
| 20260510095801 | 53 | 220 | 0.0 | 0.0 | 0.00 | 0.00 | 0.00 | 68 | 1013.9 |
| 20260510095729 | 53 | 220 | 0.0 | 0.0 | 0.00 | 0.00 | 0.00 | 68 | 1013.9 |
| 20260510095715 | 53 | 220 | 0.0 | 0.0 | 0.00 | 0.00 | 0.00 | 69 | 1013.9 |
| 20260510095358 | 53 | 220 | 0.0 | 0.0 | 0.00 | 0.00 | 0.00 | 68 | 1014.0 |
| 20260510095333 | 53 | 220 | 0.0 | 0.0 | 0.00 | 0.00 | 0.00 | 69 | 1013.9 |
| 20260510095322 | 53 | 220 | 0.0 | 0.0 | 0.00 | 0.00 | 0.00 | 68 | 1013.9 |
| 20260510095310 | 53 | 220 | 0.0 | 0.0 | 0.00 | 0.00 | 0.00 | 68 | 1013.9 |
| 20260510094732 | 53 | 220 | 0.0 | 0.0 | 0.00 | 0.00 | 0.00 | 68 | 1013.9 |
| 20260510094630 | 53 | 220 | 0.0 | 0.0 | 0.00 | 0.00 | 0.00 | 68 | 1014.0 |
| 20260510094530 | 53 | 220 | 0.0 | 0.0 | 0.00 | 0.00 | 0.00 | 68 | 1014.0 |
| 20260510094433 | 53 | 220 | 0.0 | 0.0 | 0.00 | 0.00 | 0.00 | 68 | 1013.9 |
| 20260510094329 | 53 | 220 | 0.0 | 0.0 | 0.00 | 0.00 | 0.00 | 68 | 1013.9 |
| 20260510094231 | 53 | 220 | 0.0 | 0.0 | 0.00 | 0.00 | 0.00 | 68 | 1014.0 |
| 20260510094129 | 53 | 220 | 0.0 | 0.0 | 0.00 | 0.00 | 0.00 | 68 | 1013.9 |
| 20260510094030 | 53 | 220 | 0.0 | 0.0 | 0.00 | 0.00 | 0.00 | 68 | 1013.9 |
| 20260510093929 | 53 | 220 | 0.0 | 0.0 | 0.00 | 0.00 | 0.00 | 68 | 1013.9 |
| 20260510093833 | 53 | 220 | 0.0 | 0.0 | 0.00 | 0.00 | 0.00 | 68 | 1013.9 |
| 20260510093800 | 53 | 220 | 0.0 | 0.0 | 0.00 | 0.00 | 0.00 | 68 | 1014.0 |
| 20260510093750 | 53 | 220 | 0.0 | 0.0 | 0.00 | 0.00 | 0.00 | 68 | 1014.0 |
| 20260510093430 | 53 | 220 | 0.0 | 0.0 | 0.00 | 0.00 | 0.00 | 67 | 1014.0 |
| 20260510093349 | 53 | 220 | 0.0 | 0.0 | 0.00 | 0.00 | 0.00 | 67 | 1014.0 |
| 20260510093325 | 53 | 220 | 0.0 | 0.0 | 0.00 | 0.00 | 0.00 | 67 | 1014.0 |
| 20260510093316 | 53 | 220 | 0.0 | 0.0 | 0.00 | 0.00 | 0.00 | 68 | 1014.0 |
| 20260510092945 | 53 | 220 | 0.0 | 0.0 | 0.00 | 0.00 | 0.00 | 68 | 1014.0 |
| 20260510092936 | 53 | 220 | 0.0 | 0.0 | 0.00 | 0.00 | 0.00 | 68 | 1014.0 |
| 20260510092609 | 53 | 220 | 0.0 | 0.0 | 0.00 | 0.00 | 0.00 | 68 | 1014.1 |
| 20260510092536 | 53 | 220 | 0.0 | 0.0 | 0.00 | 0.00 | 0.00 | 68 | 1014.1 |
| 20260510092526 | 53 | 220 | 0.0 | 0.0 | 0.00 | 0.00 | 0.00 | 68 | 1014.1 |
| 20260510092203 | 53 | 220 | 0.0 | 0.0 | 0.00 | 0.00 | 0.00 | 68 | 1014.1 |
| 20260510092123 | 53 | 220 | 0.0 | 0.0 | 0.00 | 0.00 | 0.00 | 68 | 1014.1 |
| 20260510092111 | 53 | 220 | 0.0 | 0.0 | 0.00 | 0.00 | 0.00 | 68 | 1014.2 |
| 20260510092103 | 53 | 220 | 0.0 | 0.0 | 0.00 | 0.00 | 0.00 | 68 | 1014.1 |
| 20260510092051 | 53 | 220 | 0.0 | 0.0 | 0.00 | 0.00 | 0.00 | 67 | 1014.1 |
| 20260510091501 | 53 | 220 | 0.0 | 0.0 | 0.00 | 0.00 | 0.00 | 67 | 1014.1 |
| 20260510091401 | 53 | 220 | 0.0 | 0.0 | 0.00 | 0.00 | 0.00 | 67 | 1014.1 |
| 20260510091301 | 53 | 220 | 0.0 | 0.0 | 0.00 | 0.00 | 0.00 | 68 | 1014.1 |
| 20260510091233 | 53 | 220 | 0.0 | 0.0 | 0.00 | 0.00 | 0.00 | 67 | 1014.1 |
| 20260510091222 | 53 | 220 | 0.0 | 0.0 | 0.00 | 0.00 | 0.00 | 67 | 1014.1 |
| 20260510090941 | 53 | 220 | 0.0 | 0.0 | 0.00 | 0.00 | 0.00 | 67 | 1014.2 |
| 20260510090931 | 53 | 220 | 0.0 | 0.0 | 0.00 | 0.00 | 0.00 | 67 | 1014.1 |
| 20260510090628 | 53 | 220 | 0.0 | 0.0 | 0.00 | 0.00 | 0.00 | 67 | 1014.2 |
| 20260510090619 | 53 | 220 | 0.0 | 0.0 | 0.00 | 0.00 | 0.00 | 67 | 1014.2 |
| 20260510090301 | 53 | 220 | 0.0 | 0.0 | 0.00 | 0.00 | 0.00 | 67 | 1014.3 |
| 20260510090159 | 53 | 220 | 0.0 | 0.0 | 0.00 | 0.00 | 0.00 | 67 | 1014.3 |
| 20260510090053 | 53 | 220 | 0.0 | 0.0 | 0.00 | 0.00 | 0.00 | 67 | 1014.3 |
| 20260510085955 | 53 | 220 | 0.0 | 0.0 | 0.00 | 0.00 | 0.00 | 67 | 1014.3 |
| 20260510085940 | 53 | 220 | 0.0 | 0.0 | 0.00 | 0.00 | 0.00 | 67 | 1014.3 |
| 20260510085920 | 53 | 220 | 0.0 | 0.0 | 0.00 | 0.00 | 0.00 | 67 | 1014.3 |
| 20260510085648 | 53 | 220 | 0.0 | 0.0 | 0.00 | 0.00 | 0.00 | 67 | 1014.3 |
| 20260510085330 | 53 | 220 | 0.0 | 0.0 | 0.00 | 0.00 | 0.00 | 67 | 1014.3 |
| 20260510085229 | 53 | 220 | 0.0 | 0.0 | 0.00 | 0.00 | 0.00 | 67 | 1014.3 |
| 20260510085158 | 53 | 220 | 0.0 | 0.0 | 0.00 | 0.00 | 0.00 | 67 | 1014.3 |
| 20260510085150 | 53 | 220 | 0.0 | 0.0 | 0.00 | 0.00 | 0.00 | 67 | 1014.3 |
| 20260510084830 | 53 | 220 | 0.0 | 0.0 | 0.00 | 0.00 | 0.00 | 67 | 1014.3 |
| 20260510084732 | 53 | 220 | 0.0 | 0.0 | 0.00 | 0.00 | 0.00 | 67 | 1014.2 |
| 20260510084630 | 53 | 220 | 0.0 | 0.0 | 0.00 | 0.00 | 0.00 | 67 | 1014.2 |
| 20260510084531 | 53 | 220 | 0.0 | 0.0 | 0.00 | 0.00 | 0.00 | 67 | 1014.2 |
| 20260510084509 | 53 | 220 | 0.0 | 0.0 | 0.00 | 0.00 | 0.00 | 67 | 1014.2 |
| 20260510084500 | 53 | 220 | 0.0 | 0.0 | 0.00 | 0.00 | 0.00 | 67 | 1014.2 |
| 20260510084131 | 53 | 220 | 0.0 | 0.0 | 0.00 | 0.00 | 0.00 | 67 | 1014.2 |
| 20260510084029 | 53 | 220 | 0.0 | 0.0 | 0.00 | 0.00 | 0.00 | 67 | 1014.3 |
| 20260510083928 | 53 | 220 | 0.0 | 0.0 | 0.00 | 0.00 | 0.00 | 67 | 1014.2 |
| 20260510083828 | 53 | 220 | 0.0 | 1.0 | 0.00 | 0.00 | 0.00 | 67 | 1014.2 |
| 20260510083721 | 53 | 220 | 0.0 | 1.0 | 0.00 | 0.00 | 0.00 | 67 | 1014.3 |
| 20260510083703 | 53 | 220 | 0.0 | 1.0 | 0.00 | 0.00 | 0.00 | 67 | 1014.2 |
| 20260510083651 | 53 | 220 | 0.0 | 1.0 | 0.00 | 0.00 | 0.00 | 67 | 1014.3 |
| 20260510083418 | 53 | 220 | 0.0 | 1.0 | 0.00 | 0.00 | 0.00 | 67 | 1014.3 |
| 20260510083357 | 53 | 220 | 0.0 | 1.0 | 0.00 | 0.00 | 0.00 | 68 | 1014.3 |
| 20260510083126 | 53 | 220 | 0.0 | 1.0 | 0.00 | 0.00 | 0.00 | 68 | 1014.4 |
| 20260510083115 | 53 | 221 | 0.0 | 1.0 | 0.00 | 0.00 | 0.00 | 68 | 1014.3 |
| 20260510082759 | 53 | 223 | 0.0 | 1.0 | 0.00 | 0.00 | 0.00 | 68 | 1014.4 |
| 20260510082749 | 53 | 229 | 0.0 | 1.0 | 0.00 | 0.00 | 0.00 | 68 | 1014.4 |
| 20260510082737 | 53 | 232 | 0.0 | 1.0 | 0.00 | 0.00 | 0.00 | 68 | 1014.4 |
| 20260510082202 | 53 | 245 | 0.0 | 0.0 | 0.00 | 0.00 | 0.00 | 67 | 1014.4 |
| 20260510082101 | 53 | 245 | 0.0 | 1.0 | 0.00 | 0.00 | 0.00 | 67 | 1014.5 |
| 20260510082031 | 53 | 245 | 0.0 | 1.0 | 0.00 | 0.00 | 0.00 | 67 | 1014.4 |
| 20260510082021 | 53 | 245 | 0.0 | 1.0 | 0.00 | 0.00 | 0.00 | 67 | 1014.5 |
| 20260510081701 | 54 | 245 | 0.0 | 1.0 | 0.00 | 0.00 | 0.00 | 66 | 1014.5 |
| 20260510081615 | 54 | 245 | 0.0 | 1.0 | 0.00 | 0.00 | 0.00 | 67 | 1014.5 |
| 20260510081603 | 54 | 245 | 0.0 | 1.0 | 0.00 | 0.00 | 0.00 | 67 | 1014.5 |
| 20260510081551 | 54 | 245 | 0.0 | 1.0 | 0.00 | 0.00 | 0.00 | 67 | 1014.5 |
| 20260510081540 | 54 | 245 | 0.0 | 1.0 | 0.00 | 0.00 | 0.00 | 67 | 1014.5 |
| 20260510081258 | 54 | 249 | 0.0 | 1.0 | 0.00 | 0.00 | 0.00 | 67 | 1014.5 |
| 20260510081029 | 54 | 28 | 0.0 | 0.0 | 0.00 | 0.00 | 0.00 | 67 | 1014.5 |
| 20260510080749 | 54 | 28 | 0.0 | 0.0 | 0.00 | 0.00 | 0.00 | 66 | 1014.5 |
| 20260510080429 | 54 | 28 | 0.0 | 0.0 | 0.00 | 0.00 | 0.00 | 66 | 1014.5 |
| 20260510080331 | 54 | 28 | 0.0 | 0.0 | 0.00 | 0.00 | 0.00 | 66 | 1014.5 |
| 20260510080229 | 54 | 28 | 0.0 | 0.0 | 0.00 | 0.00 | 0.00 | 66 | 1014.5 |
| 20260510080133 | 54 | 28 | 0.0 | 0.0 | 0.00 | 0.00 | 0.00 | 67 | 1014.5 |
| 20260510080030 | 54 | 28 | 0.0 | 0.0 | 0.00 | 0.00 | 0.00 | 67 | 1014.5 |
| 20260510075935 | 54 | 28 | 0.0 | 0.0 | 0.00 | 0.00 | 0.00 | 66 | 1014.5 |
| 20260510075830 | 54 | 28 | 0.0 | 0.0 | 0.00 | 0.00 | 0.00 | 66 | 1014.5 |
| 20260510075733 | 54 | 28 | 0.0 | 0.0 | 0.00 | 0.00 | 0.00 | 66 | 1014.5 |
| 20260510075701 | 54 | 28 | 0.0 | 0.0 | 0.00 | 0.00 | 0.00 | 66 | 1014.5 |
| 20260510075648 | 54 | 28 | 0.0 | 0.0 | 0.00 | 0.00 | 0.00 | 66 | 1014.5 |
| 20260510075411 | 54 | 28 | 0.0 | 0.0 | 0.00 | 0.00 | 0.00 | 66 | 1014.5 |
| 20260510075401 | 54 | 28 | 0.0 | 0.0 | 0.00 | 0.00 | 0.00 | 66 | 1014.5 |
| 20260510075056 | 54 | 28 | 0.0 | 0.0 | 0.00 | 0.00 | 0.00 | 66 | 1014.5 |
| 20260510075046 | 54 | 28 | 0.0 | 0.0 | 0.00 | 0.00 | 0.00 | 66 | 1014.5 |
| 20260510074721 | 54 | 28 | 0.0 | 0.0 | 0.00 | 0.00 | 0.00 | 66 | 1014.5 |
| 20260510074619 | 54 | 28 | 0.0 | 0.0 | 0.00 | 0.00 | 0.00 | 66 | 1014.5 |
| 20260510074520 | 54 | 28 | 0.0 | 0.0 | 0.00 | 0.00 | 0.00 | 66 | 1014.5 |
| 20260510074418 | 54 | 28 | 0.0 | 0.0 | 0.00 | 0.00 | 0.00 | 66 | 1014.6 |
| 20260510074303 | 54 | 28 | 0.0 | 0.0 | 0.00 | 0.00 | 0.00 | 66 | 1014.5 |
| 20260510074203 | 54 | 28 | 0.0 | 0.0 | 0.00 | 0.00 | 0.00 | 66 | 1014.6 |
| 20260510074110 | 54 | 28 | 0.0 | 0.0 | 0.00 | 0.00 | 0.00 | 66 | 1014.6 |
| 20260510074021 | 54 | 28 | 0.0 | 0.0 | 0.00 | 0.00 | 0.00 | 66 | 1014.6 |
| 20260510074012 | 54 | 28 | 0.0 | 0.0 | 0.00 | 0.00 | 0.00 | 66 | 1014.5 |
| 20260510074001 | 54 | 28 | 0.0 | 0.0 | 0.00 | 0.00 | 0.00 | 66 | 1014.6 |
| 20260510073723 | 55 | 28 | 0.0 | 0.0 | 0.00 | 0.00 | 0.00 | 66 | 1014.6 |
| 20260510073404 | 55 | 28 | 0.0 | 0.0 | 0.00 | 0.00 | 0.00 | 65 | 1014.6 |
| 20260510073303 | 55 | 28 | 0.0 | 0.0 | 0.00 | 0.00 | 0.00 | 65 | 1014.6 |
| 20260510073212 | 55 | 28 | 0.0 | 0.0 | 0.00 | 0.00 | 0.00 | 65 | 1014.7 |
| 20260510073102 | 55 | 28 | 0.0 | 0.0 | 0.00 | 0.00 | 0.00 | 66 | 1014.7 |
| 20260510073002 | 55 | 28 | 0.0 | 0.0 | 0.00 | 0.00 | 0.00 | 65 | 1014.6 |
| 20260510072905 | 55 | 28 | 0.0 | 0.0 | 0.00 | 0.00 | 0.00 | 65 | 1014.6 |
| 20260510072802 | 55 | 28 | 0.0 | 0.0 | 0.00 | 0.00 | 0.00 | 65 | 1014.7 |
| 20260510072713 | 55 | 28 | 0.0 | 0.0 | 0.00 | 0.00 | 0.00 | 65 | 1014.6 |
| 20260510072555 | 55 | 28 | 0.0 | 0.0 | 0.00 | 0.00 | 0.00 | 65 | 1014.6 |
| 20260510072453 | 55 | 28 | 0.0 | 0.0 | 0.00 | 0.00 | 0.00 | 65 | 1014.6 |
| 20260510072435 | 55 | 28 | 0.0 | 0.0 | 0.00 | 0.00 | 0.00 | 65 | 1014.7 |
| 20260510072425 | 55 | 28 | 0.0 | 0.0 | 0.00 | 0.00 | 0.00 | 65 | 1014.7 |
| 20260510072052 | 55 | 28 | 0.0 | 0.0 | 0.00 | 0.00 | 0.00 | 65 | 1014.7 |
| 20260510071951 | 55 | 28 | 0.0 | 0.0 | 0.00 | 0.00 | 0.00 | 64 | 1014.7 |
| 20260510071840 | 56 | 28 | 0.0 | 0.0 | 0.00 | 0.00 | 0.00 | 65 | 1014.7 |
| 20260510071731 | 56 | 28 | 0.0 | 0.0 | 0.00 | 0.00 | 0.00 | 64 | 1014.7 |
| 20260510071630 | 56 | 28 | 0.0 | 0.0 | 0.00 | 0.00 | 0.00 | 64 | 1014.7 |
| 20260510071529 | 56 | 28 | 0.0 | 0.0 | 0.00 | 0.00 | 0.00 | 64 | 1014.7 |
| 20260510071429 | 56 | 28 | 0.0 | 0.0 | 0.00 | 0.00 | 0.00 | 64 | 1014.7 |
| 20260510071330 | 56 | 28 | 0.0 | 0.0 | 0.00 | 0.00 | 0.00 | 64 | 1014.7 |
| 20260510071229 | 56 | 28 | 0.0 | 0.0 | 0.00 | 0.00 | 0.00 | 64 | 1014.7 |
| 20260510071132 | 56 | 28 | 0.0 | 0.0 | 0.00 | 0.00 | 0.00 | 64 | 1014.7 |
| 20260510071058 | 56 | 28 | 0.0 | 0.0 | 0.00 | 0.00 | 0.00 | 64 | 1014.7 |
| 20260510071050 | 56 | 28 | 0.0 | 0.0 | 0.00 | 0.00 | 0.00 | 63 | 1014.7 |
| 20260510070731 | 56 | 28 | 0.0 | 0.0 | 0.00 | 0.00 | 0.00 | 63 | 1014.7 |
| 20260510070629 | 56 | 28 | 0.0 | 0.0 | 0.00 | 0.00 | 0.00 | 63 | 1014.7 |
| 20260510070528 | 56 | 28 | 0.0 | 0.0 | 0.00 | 0.00 | 0.00 | 63 | 1014.7 |
| 20260510070450 | 56 | 28 | 0.0 | 0.0 | 0.00 | 0.00 | 0.00 | 63 | 1014.7 |
| 20260510070435 | 56 | 28 | 0.0 | 0.0 | 0.00 | 0.00 | 0.00 | 63 | 1014.7 |
| 20260510070424 | 56 | 28 | 0.0 | 0.0 | 0.00 | 0.00 | 0.00 | 63 | 1014.6 |
| 20260510070145 | 56 | 28 | 0.0 | 0.0 | 0.00 | 0.00 | 0.00 | 63 | 1014.7 |
| 20260510065823 | 57 | 28 | 0.0 | 0.0 | 0.00 | 0.00 | 0.00 | 62 | 1014.7 |
| 20260510065724 | 57 | 28 | 0.0 | 0.0 | 0.00 | 0.00 | 0.00 | 62 | 1014.6 |
| 20260510065621 | 57 | 28 | 0.0 | 0.0 | 0.00 | 0.00 | 0.00 | 62 | 1014.6 |
| 20260510065509 | 57 | 28 | 0.0 | 0.0 | 0.00 | 0.00 | 0.00 | 62 | 1014.6 |
| 20260510065406 | 57 | 28 | 0.0 | 0.0 | 0.00 | 0.00 | 0.00 | 62 | 1014.7 |
| 20260510065306 | 57 | 28 | 0.0 | 0.0 | 0.00 | 0.00 | 0.00 | 62 | 1014.6 |
| 20260510065206 | 57 | 28 | 0.0 | 0.0 | 0.00 | 0.00 | 0.00 | 62 | 1014.7 |
| 20260510065103 | 57 | 28 | 0.0 | 0.0 | 0.00 | 0.00 | 0.00 | 62 | 1014.7 |
| 20260510065035 | 57 | 28 | 0.0 | 0.0 | 0.00 | 0.00 | 0.00 | 62 | 1014.7 |
| 20260510065026 | 57 | 28 | 0.0 | 0.0 | 0.00 | 0.00 | 0.00 | 62 | 1014.7 |
| 20260510064701 | 57 | 28 | 0.0 | 0.0 | 0.00 | 0.00 | 0.00 | 61 | 1014.7 |
| 20260510064605 | 57 | 28 | 0.0 | 0.0 | 0.00 | 0.00 | 0.00 | 62 | 1014.6 |
| 20260510064501 | 57 | 28 | 0.0 | 0.0 | 0.00 | 0.00 | 0.00 | 62 | 1014.6 |
| 20260510064403 | 57 | 28 | 0.0 | 0.0 | 0.00 | 0.00 | 0.00 | 62 | 1014.6 |
| 20260510064301 | 57 | 28 | 0.0 | 0.0 | 0.00 | 0.00 | 0.00 | 61 | 1014.6 |
| 20260510064202 | 58 | 28 | 0.0 | 0.0 | 0.00 | 0.00 | 0.00 | 61 | 1014.6 |
| 20260510064101 | 58 | 28 | 0.0 | 0.0 | 0.00 | 0.00 | 0.00 | 61 | 1014.6 |
| 20260510064004 | 58 | 28 | 0.0 | 0.0 | 0.00 | 0.00 | 0.00 | 61 | 1014.6 |
| 20260510063936 | 58 | 28 | 0.0 | 0.0 | 0.00 | 0.00 | 0.00 | 61 | 1014.6 |
| 20260510063926 | 58 | 28 | 0.0 | 0.0 | 0.00 | 0.00 | 0.00 | 61 | 1014.6 |
| 20260510063916 | 58 | 28 | 0.0 | 0.0 | 0.00 | 0.00 | 0.00 | 61 | 1014.6 |
| 20260510063851 | 58 | 28 | 0.0 | 0.0 | 0.00 | 0.00 | 0.00 | 61 | 1014.6 |
| 20260510063621 | 58 | 28 | 0.0 | 0.0 | 0.00 | 0.00 | 0.00 | 61 | 1014.6 |
| 20260510063612 | 58 | 28 | 0.0 | 0.0 | 0.00 | 0.00 | 0.00 | 61 | 1014.6 |
| 20260510063328 | 58 | 28 | 0.0 | 0.0 | 0.00 | 0.00 | 0.00 | 61 | 1014.6 |
| 20260510062817 | 58 | 28 | 0.0 | 0.0 | 0.00 | 0.00 | 0.00 | 61 | 1014.6 |
| 20260510062808 | 58 | 28 | 0.0 | 0.0 | 0.00 | 0.00 | 0.00 | 61 | 1014.6 |
| 20260510062745 | 58 | 28 | 0.0 | 0.0 | 0.00 | 0.00 | 0.00 | 61 | 1014.5 |
| 20260510062704 | 58 | 28 | 0.0 | 0.0 | 0.00 | 0.00 | 0.00 | 61 | 1014.5 |
| 20260510062209 | 59 | 28 | 0.0 | 0.0 | 0.00 | 0.00 | 0.00 | 60 | 1014.5 |
| 20260510062148 | 59 | 28 | 0.0 | 0.0 | 0.00 | 0.00 | 0.00 | 61 | 1014.5 |
| 20260510061908 | 59 | 28 | 0.0 | 0.0 | 0.00 | 0.00 | 0.00 | 60 | 1014.5 |
| 20260510061857 | 59 | 28 | 0.0 | 0.0 | 0.00 | 0.00 | 0.00 | 60 | 1014.5 |
| 20260510061536 | 59 | 28 | 0.0 | 0.0 | 0.00 | 0.00 | 0.00 | 58 | 1014.5 |
| 20260510061429 | 59 | 28 | 0.0 | 0.0 | 0.00 | 0.00 | 0.00 | 58 | 1014.5 |
| 20260510061408 | 59 | 28 | 0.0 | 0.0 | 0.00 | 0.00 | 0.00 | 58 | 1014.6 |
| 20260510061357 | 59 | 28 | 0.0 | 0.0 | 0.00 | 0.00 | 0.00 | 59 | 1014.6 |
| 20260510061030 | 59 | 28 | 0.0 | 0.0 | 0.00 | 0.00 | 0.00 | 59 | 1014.6 |
| 20260510060928 | 59 | 28 | 0.0 | 0.0 | 0.00 | 0.00 | 0.00 | 59 | 1014.6 |
| 20260510060839 | 59 | 28 | 0.0 | 0.0 | 0.00 | 0.00 | 0.00 | 58 | 1014.7 |
| 20260510060823 | 59 | 28 | 0.0 | 0.0 | 0.00 | 0.00 | 0.00 | 58 | 1014.7 |
| 20260510060815 | 60 | 28 | 0.0 | 0.0 | 0.00 | 0.00 | 0.00 | 59 | 1014.7 |
| 20260510060753 | 60 | 28 | 0.0 | 0.0 | 0.00 | 0.00 | 0.00 | 59 | 1014.7 |
| 20260510060741 | 60 | 28 | 0.0 | 0.0 | 0.00 | 0.00 | 0.00 | 59 | 1014.7 |
| 20260510060730 | 60 | 28 | 0.0 | 0.0 | 0.00 | 0.00 | 0.00 | 59 | 1014.7 |
| 20260510060450 | 60 | 28 | 0.0 | 0.0 | 0.00 | 0.00 | 0.00 | 59 | 1014.7 |
| 20260510060219 | 60 | 28 | 0.0 | 0.0 | 0.00 | 0.00 | 0.00 | 59 | 1014.7 |
| 20260510055949 | 60 | 28 | 0.0 | 0.0 | 0.00 | 0.00 | 0.00 | 59 | 1014.7 |
| 20260510055705 | 60 | 28 | 0.0 | 0.0 | 0.00 | 0.00 | 0.00 | 59 | 1014.7 |
| 20260510055358 | 60 | 28 | 0.0 | 0.0 | 0.00 | 0.00 | 0.00 | 57 | 1014.7 |
| 20260510055349 | 60 | 28 | 0.0 | 0.0 | 0.00 | 0.00 | 0.00 | 58 | 1014.7 |
| 20260510055326 | 60 | 28 | 0.0 | 0.0 | 0.00 | 0.00 | 0.00 | 58 | 1014.7 |
| 20260510055317 | 61 | 28 | 0.0 | 0.0 | 0.00 | 0.00 | 0.00 | 58 | 1014.7 |
| 20260510055307 | 61 | 28 | 0.0 | 0.0 | 0.00 | 0.00 | 0.00 | 58 | 1014.7 |
| 20260510054502 | 61 | 28 | 0.0 | 1.0 | 0.00 | 0.00 | 0.00 | 59 | 1014.7 |
| 20260510054403 | 61 | 28 | 0.0 | 1.0 | 0.00 | 0.00 | 0.00 | 58 | 1014.7 |
| 20260510054304 | 61 | 28 | 0.0 | 1.0 | 0.00 | 0.00 | 0.00 | 58 | 1014.7 |
| 20260510054203 | 61 | 28 | 0.0 | 1.0 | 0.00 | 0.00 | 0.00 | 58 | 1014.7 |
| 20260510054129 | 61 | 28 | 0.0 | 1.0 | 0.00 | 0.00 | 0.00 | 58 | 1014.7 |
| 20260510054116 | 61 | 28 | 0.0 | 1.0 | 0.00 | 0.00 | 0.00 | 58 | 1014.7 |
| 20260510054105 | 61 | 28 | 0.0 | 1.0 | 0.00 | 0.00 | 0.00 | 58 | 1014.7 |
| 20260510053838 | 62 | 28 | 0.0 | 1.0 | 0.00 | 0.00 | 0.00 | 59 | 1014.7 |
| 20260510053502 | 62 | 27 | 0.0 | 1.0 | 0.00 | 0.00 | 0.00 | 58 | 1014.6 |
| 20260510053435 | 62 | 27 | 0.0 | 1.0 | 0.00 | 0.00 | 0.00 | 58 | 1014.6 |
| 20260510053425 | 62 | 27 | 0.0 | 1.0 | 0.00 | 0.00 | 0.00 | 59 | 1014.6 |
| 20260510053102 | 62 | 27 | 0.0 | 2.0 | 0.00 | 0.00 | 0.00 | 58 | 1014.6 |
| 20260510053004 | 62 | 27 | 0.0 | 2.0 | 0.00 | 0.00 | 0.00 | 58 | 1014.6 |
| 20260510052902 | 62 | 27 | 0.0 | 2.0 | 0.00 | 0.00 | 0.00 | 58 | 1014.6 |
| 20260510052802 | 62 | 27 | 0.0 | 2.0 | 0.00 | 0.00 | 0.00 | 57 | 1014.6 |
| 20260510052707 | 62 | 27 | 0.0 | 2.0 | 0.00 | 0.00 | 0.00 | 57 | 1014.6 |
| 20260510052604 | 62 | 27 | 0.0 | 2.0 | 0.00 | 0.00 | 0.00 | 57 | 1014.7 |
| 20260510052504 | 62 | 27 | 0.0 | 2.0 | 0.00 | 0.00 | 0.00 | 57 | 1014.6 |
| 20260510052432 | 62 | 27 | 1.0 | 2.0 | 0.00 | 0.00 | 0.00 | 56 | 1014.6 |
| 20260510052420 | 62 | 27 | 1.0 | 2.0 | 0.00 | 0.00 | 0.00 | 56 | 1014.6 |
| 20260510052102 | 62 | 144 | 0.0 | 1.0 | 0.00 | 0.00 | 0.00 | 56 | 1014.7 |
| 20260510052004 | 62 | 144 | 0.0 | 1.0 | 0.00 | 0.00 | 0.00 | 56 | 1014.7 |
| 20260510051910 | 62 | 144 | 0.0 | 0.0 | 0.00 | 0.00 | 0.00 | 56 | 1014.7 |
| 20260510051901 | 62 | 144 | 0.0 | 0.0 | 0.00 | 0.00 | 0.00 | 56 | 1014.7 |
| 20260510051851 | 62 | 144 | 0.0 | 0.0 | 0.00 | 0.00 | 0.00 | 56 | 1014.7 |
| 20260510051840 | 63 | 144 | 0.0 | 0.0 | 0.00 | 0.00 | 0.00 | 56 | 1014.7 |
| 20260510051815 | 63 | 144 | 0.0 | 0.0 | 0.00 | 0.00 | 0.00 | 56 | 1014.8 |
| 20260510051330 | 63 | 144 | 0.0 | 0.0 | 0.00 | 0.00 | 0.00 | 55 | 1014.7 |
| 20260510051004 | 63 | 144 | 0.0 | 0.0 | 0.00 | 0.00 | 0.00 | 55 | 1014.7 |
| 20260510050907 | 63 | 144 | 0.0 | 0.0 | 0.00 | 0.00 | 0.00 | 55 | 1014.7 |
| 20260510050803 | 63 | 144 | 0.0 | 0.0 | 0.00 | 0.00 | 0.00 | 55 | 1014.7 |
| 20260510050702 | 63 | 144 | 0.0 | 1.0 | 0.00 | 0.00 | 0.00 | 55 | 1014.7 |
| 20260510050631 | 63 | 144 | 0.0 | 1.0 | 0.00 | 0.00 | 0.00 | 55 | 1014.7 |
| 20260510050602 | 63 | 144 | 0.0 | 1.0 | 0.00 | 0.00 | 0.00 | 54 | 1014.7 |
| 20260510050554 | 63 | 144 | 0.0 | 1.0 | 0.00 | 0.00 | 0.00 | 55 | 1014.8 |
| 20260510050541 | 63 | 144 | 0.0 | 1.0 | 0.00 | 0.00 | 0.00 | 54 | 1014.7 |
| 20260510045953 | 63 | 144 | 0.0 | 1.0 | 0.00 | 0.00 | 0.00 | 55 | 1014.7 |
| 20260510045941 | 63 | 144 | 0.0 | 1.0 | 0.00 | 0.00 | 0.00 | 55 | 1014.8 |
| 20260510045929 | 64 | 144 | 0.0 | 1.0 | 0.00 | 0.00 | 0.00 | 54 | 1014.8 |
| 20260510045918 | 64 | 144 | 0.0 | 1.0 | 0.00 | 0.00 | 0.00 | 54 | 1014.8 |
| 20260510045637 | 64 | 144 | 0.0 | 1.0 | 0.00 | 0.00 | 0.00 | 54 | 1014.8 |
| 20260510045248 | 64 | 144 | 0.0 | 1.0 | 0.00 | 0.00 | 0.00 | 54 | 1014.8 |
| 20260510045149 | 64 | 144 | 0.0 | 1.0 | 0.00 | 0.00 | 0.00 | 54 | 1014.8 |
| 20260510045051 | 64 | 144 | 0.0 | 1.0 | 0.00 | 0.00 | 0.00 | 54 | 1014.8 |
| 20260510044947 | 64 | 144 | 0.0 | 1.0 | 0.00 | 0.00 | 0.00 | 54 | 1014.8 |
| 20260510044846 | 64 | 144 | 0.0 | 1.0 | 0.00 | 0.00 | 0.00 | 54 | 1014.8 |
| 20260510044747 | 64 | 144 | 0.0 | 1.0 | 0.00 | 0.00 | 0.00 | 54 | 1014.8 |
| 20260510044641 | 64 | 144 | 0.0 | 1.0 | 0.00 | 0.00 | 0.00 | 53 | 1014.8 |
| 20260510044533 | 64 | 144 | 0.0 | 1.0 | 0.00 | 0.00 | 0.00 | 53 | 1014.8 |
| 20260510044513 | 64 | 144 | 0.0 | 1.0 | 0.00 | 0.00 | 0.00 | 53 | 1014.8 |
| 20260510044504 | 64 | 144 | 0.0 | 1.0 | 0.00 | 0.00 | 0.00 | 53 | 1014.8 |
| 20260510044452 | 64 | 144 | 0.0 | 1.0 | 0.00 | 0.00 | 0.00 | 53 | 1014.7 |
| 20260510044212 | 64 | 144 | 0.0 | 1.0 | 0.00 | 0.00 | 0.00 | 53 | 1014.8 |
| 20260510043942 | 65 | 144 | 0.0 | 1.0 | 0.00 | 0.00 | 0.00 | 52 | 1014.8 |
| 20260510043932 | 65 | 144 | 0.0 | 1.0 | 0.00 | 0.00 | 0.00 | 52 | 1014.8 |
| 20260510043921 | 65 | 144 | 0.0 | 1.0 | 0.00 | 0.00 | 0.00 | 52 | 1014.8 |
| 20260510043357 | 65 | 144 | 0.0 | 1.0 | 0.00 | 0.00 | 0.00 | 52 | 1014.9 |
| 20260510043347 | 65 | 144 | 0.0 | 1.0 | 0.00 | 0.00 | 0.00 | 52 | 1014.9 |
| 20260510043030 | 65 | 144 | 0.0 | 1.0 | 0.00 | 0.00 | 0.00 | 51 | 1014.9 |
| 20260510042930 | 65 | 144 | 0.0 | 1.0 | 0.00 | 0.00 | 0.00 | 51 | 1014.9 |
| 20260510042830 | 65 | 144 | 0.0 | 1.0 | 0.00 | 0.00 | 0.00 | 52 | 1014.9 |
| 20260510042729 | 65 | 144 | 0.0 | 1.0 | 0.00 | 0.00 | 0.00 | 51 | 1014.9 |
| 20260510042623 | 65 | 144 | 0.0 | 0.0 | 0.00 | 0.00 | 0.00 | 51 | 1014.9 |
| 20260510042519 | 65 | 144 | 0.0 | 0.0 | 0.00 | 0.00 | 0.00 | 51 | 1014.9 |
| 20260510042418 | 65 | 144 | 0.0 | 0.0 | 0.00 | 0.00 | 0.00 | 51 | 1014.9 |
| 20260510042316 | 65 | 144 | 0.0 | 0.0 | 0.00 | 0.00 | 0.00 | 50 | 1014.9 |
| 20260510042214 | 65 | 144 | 0.0 | 0.0 | 0.00 | 0.00 | 0.00 | 50 | 1014.9 |
| 20260510042115 | 65 | 144 | 0.0 | 0.0 | 0.00 | 0.00 | 0.00 | 49 | 1014.9 |
| 20260510042008 | 66 | 144 | 0.0 | 1.0 | 0.00 | 0.00 | 0.00 | 49 | 1015.0 |
| 20260510041902 | 66 | 144 | 0.0 | 1.0 | 0.00 | 0.00 | 0.00 | 49 | 1015.0 |
| 20260510041804 | 66 | 144 | 0.0 | 1.0 | 0.00 | 0.00 | 0.00 | 49 | 1015.0 |
| 20260510041702 | 66 | 144 | 0.0 | 1.0 | 0.00 | 0.00 | 0.00 | 49 | 1015.0 |
| 20260510041603 | 66 | 144 | 0.0 | 1.0 | 0.00 | 0.00 | 0.00 | 50 | 1014.9 |
| 20260510041502 | 66 | 144 | 0.0 | 1.0 | 0.00 | 0.00 | 0.00 | 50 | 1014.9 |
| 20260510041404 | 66 | 144 | 0.0 | 1.0 | 0.00 | 0.00 | 0.00 | 50 | 1014.9 |
| 20260510041302 | 66 | 144 | 0.0 | 1.0 | 0.00 | 0.00 | 0.00 | 49 | 1014.9 |
| 20260510041206 | 66 | 144 | 0.0 | 1.0 | 0.00 | 0.00 | 0.00 | 50 | 1014.9 |
| 20260510041101 | 66 | 144 | 0.0 | 1.0 | 0.00 | 0.00 | 0.00 | 49 | 1014.8 |
| 20260510040901 | 66 | 144 | 0.0 | 0.0 | 0.00 | 0.00 | 0.00 | 49 | 1014.8 |
| 20260510040803 | 67 | 144 | 0.0 | 0.0 | 0.00 | 0.00 | 0.00 | 48 | 1014.8 |
| 20260510040701 | 67 | 144 | 0.0 | 0.0 | 0.00 | 0.00 | 0.00 | 49 | 1014.9 |
| 20260510040601 | 67 | 144 | 0.0 | 0.0 | 0.00 | 0.00 | 0.00 | 49 | 1014.9 |
| 20260510040501 | 67 | 144 | 0.0 | 0.0 | 0.00 | 0.00 | 0.00 | 49 | 1014.8 |
| 20260510040402 | 67 | 144 | 0.0 | 0.0 | 0.00 | 0.00 | 0.00 | 49 | 1014.8 |
| 20260510040301 | 67 | 144 | 0.0 | 0.0 | 0.00 | 0.00 | 0.00 | 48 | 1014.8 |
| 20260510040228 | 67 | 144 | 0.0 | 0.0 | 0.00 | 0.00 | 0.00 | 48 | 1014.8 |
| 20260510040217 | 67 | 144 | 0.0 | 0.0 | 0.00 | 0.00 | 0.00 | 48 | 1014.8 |
| 20260510040156 | 67 | 144 | 0.0 | 1.0 | 0.00 | 0.00 | 0.00 | 48 | 1014.8 |
| 20260510040143 | 67 | 144 | 0.0 | 1.0 | 0.00 | 0.00 | 0.00 | 48 | 1014.8 |
| 20260510035915 | 67 | 144 | 0.0 | 1.0 | 0.00 | 0.00 | 0.00 | 48 | 1014.8 |
| 20260510035904 | 67 | 144 | 0.0 | 1.0 | 0.00 | 0.00 | 0.00 | 48 | 1014.8 |
| 20260510035401 | 68 | 144 | 0.0 | 1.0 | 0.00 | 0.00 | 0.00 | 47 | 1014.8 |
| 20260510035352 | 68 | 144 | 0.0 | 1.0 | 0.00 | 0.00 | 0.00 | 46 | 1014.8 |
| 20260510035341 | 68 | 144 | 0.0 | 1.0 | 0.00 | 0.00 | 0.00 | 46 | 1014.8 |
| 20260510035249 | 68 | 144 | 0.0 | 1.0 | 0.00 | 0.00 | 0.00 | 46 | 1014.8 |
| 20260510035236 | 68 | 144 | 0.0 | 1.0 | 0.00 | 0.00 | 0.00 | 46 | 1014.8 |
| 20260510035006 | 68 | 144 | 0.0 | 1.0 | 0.00 | 0.00 | 0.00 | 46 | 1014.8 |
| 20260510034956 | 68 | 144 | 0.0 | 1.0 | 0.00 | 0.00 | 0.00 | 46 | 1014.7 |
| 20260510034713 | 69 | 144 | 0.0 | 1.0 | 0.00 | 0.00 | 0.00 | 45 | 1014.7 |
| 20260510034228 | 69 | 144 | 0.0 | 1.0 | 0.00 | 0.00 | 0.00 | 44 | 1014.7 |
| 20260510033858 | 69 | 144 | 0.0 | 1.0 | 0.00 | 0.00 | 0.00 | 44 | 1014.7 |
| 20260510033754 | 69 | 144 | 0.0 | 1.0 | 0.00 | 0.00 | 0.00 | 44 | 1014.8 |
| 20260510033648 | 69 | 144 | 0.0 | 1.0 | 0.00 | 0.00 | 0.00 | 44 | 1014.8 |
| 20260510033551 | 69 | 144 | 0.0 | 2.0 | 0.00 | 0.00 | 0.00 | 43 | 1014.8 |
| 20260510033518 | 69 | 144 | 0.0 | 2.0 | 0.00 | 0.00 | 0.00 | 43 | 1014.8 |
| 20260510033509 | 69 | 144 | 0.0 | 2.0 | 0.00 | 0.00 | 0.00 | 43 | 1014.9 |
| 20260510033154 | 70 | 144 | 0.0 | 2.0 | 0.00 | 0.00 | 0.00 | 43 | 1014.9 |
| 20260510033138 | 70 | 144 | 0.0 | 2.0 | 0.00 | 0.00 | 0.00 | 43 | 1014.9 |
| 20260510033116 | 70 | 144 | 0.0 | 2.0 | 0.00 | 0.00 | 0.00 | 42 | 1014.8 |
| 20260510033105 | 70 | 144 | 1.0 | 2.0 | 0.00 | 0.00 | 0.00 | 42 | 1014.8 |
| 20260510032537 | 70 | 127 | 1.0 | 1.0 | 0.00 | 0.00 | 0.00 | 42 | 1014.8 |
| 20260510032430 | 71 | 127 | 0.0 | 1.0 | 0.00 | 0.00 | 0.00 | 42 | 1014.8 |
| 20260510032329 | 71 | 127 | 0.0 | 1.0 | 0.00 | 0.00 | 0.00 | 41 | 1014.8 |
| 20260510032229 | 71 | 127 | 0.0 | 1.0 | 0.00 | 0.00 | 0.00 | 40 | 1014.8 |
| 20260510032134 | 71 | 127 | 0.0 | 1.0 | 0.00 | 0.00 | 0.00 | 40 | 1014.8 |
| 20260510032035 | 71 | 127 | 0.0 | 1.0 | 0.00 | 0.00 | 0.00 | 39 | 1014.8 |
| 20260510031931 | 71 | 127 | 0.0 | 0.0 | 0.00 | 0.00 | 0.00 | 38 | 1014.8 |
| 20260510031902 | 71 | 127 | 0.0 | 1.0 | 0.00 | 0.00 | 0.00 | 38 | 1014.7 |
| 20260510031851 | 71 | 127 | 0.0 | 1.0 | 0.00 | 0.00 | 0.00 | 38 | 1014.7 |
| 20260510031536 | 72 | 127 | 0.0 | 1.0 | 0.00 | 0.00 | 0.00 | 38 | 1014.7 |
| 20260510031429 | 72 | 127 | 0.0 | 1.0 | 0.00 | 0.00 | 0.00 | 38 | 1014.7 |
| 20260510031330 | 72 | 127 | 0.0 | 1.0 | 0.00 | 0.00 | 0.00 | 38 | 1014.7 |
| 20260510031228 | 72 | 127 | 0.0 | 1.0 | 0.00 | 0.00 | 0.00 | 38 | 1014.7 |
| 20260510031129 | 72 | 127 | 0.0 | 1.0 | 0.00 | 0.00 | 0.00 | 38 | 1014.8 |
| 20260510031030 | 72 | 127 | 0.0 | 1.0 | 0.00 | 0.00 | 0.00 | 38 | 1014.8 |
| 20260510030926 | 72 | 127 | 0.0 | 1.0 | 0.00 | 0.00 | 0.00 | 38 | 1014.7 |
| 20260510030822 | 72 | 127 | 0.0 | 2.0 | 0.00 | 0.00 | 0.00 | 38 | 1014.7 |
| 20260510030751 | 72 | 127 | 0.0 | 2.0 | 0.00 | 0.00 | 0.00 | 37 | 1014.8 |
| 20260510030739 | 72 | 127 | 0.0 | 2.0 | 0.00 | 0.00 | 0.00 | 37 | 1014.8 |
| 20260510030406 | 73 | 127 | 0.0 | 2.0 | 0.00 | 0.00 | 0.00 | 36 | 1014.8 |
| 20260510030305 | 73 | 127 | 0.0 | 2.0 | 0.00 | 0.00 | 0.00 | 36 | 1014.8 |
| 20260510030201 | 73 | 126 | 1.0 | 2.0 | 0.00 | 0.00 | 0.00 | 35 | 1014.7 |
| 20260510030002 | 73 | 107 | 0.0 | 2.0 | 0.00 | 0.00 | 0.00 | 34 | 1014.8 |
| 20260510025902 | 73 | 104 | 0.0 | 2.0 | 0.00 | 0.00 | 0.00 | 34 | 1014.7 |
| 20260510025803 | 73 | 103 | 0.0 | 1.0 | 0.00 | 0.00 | 0.00 | 34 | 1014.7 |
| 20260510025703 | 73 | 103 | 0.0 | 1.0 | 0.00 | 0.00 | 0.00 | 34 | 1014.7 |
| 20260510025648 | 73 | 103 | 0.0 | 1.0 | 0.00 | 0.00 | 0.00 | 34 | 1014.7 |
| 20260510025623 | 73 | 103 | 0.0 | 1.0 | 0.00 | 0.00 | 0.00 | 34 | 1014.7 |
| 20260510025309 | 74 | 103 | 0.0 | 1.0 | 0.00 | 0.00 | 0.00 | 34 | 1014.7 |
| 20260510025201 | 74 | 103 | 0.0 | 1.0 | 0.00 | 0.00 | 0.00 | 34 | 1014.8 |
| 20260510025102 | 74 | 107 | 0.0 | 1.0 | 0.00 | 0.00 | 0.00 | 35 | 1014.8 |
| 20260510025023 | 74 | 107 | 0.0 | 1.0 | 0.00 | 0.00 | 0.00 | 35 | 1014.8 |
| 20260510025011 | 74 | 107 | 0.0 | 2.0 | 0.00 | 0.00 | 0.00 | 33 | 1014.8 |
| 20260510024650 | 74 | 100 | 0.0 | 2.0 | 0.00 | 0.00 | 0.00 | 34 | 1014.9 |
| 20260510024550 | 74 | 100 | 1.0 | 2.0 | 0.00 | 0.00 | 0.00 | 33 | 1014.8 |
| 20260510024447 | 74 | 99 | 1.0 | 2.0 | 0.00 | 0.00 | 0.00 | 33 | 1014.9 |
| 20260510024349 | 74 | 99 | 1.0 | 2.0 | 0.00 | 0.00 | 0.00 | 33 | 1014.8 |
| 20260510024243 | 74 | 99 | 0.0 | 2.0 | 0.00 | 0.00 | 0.00 | 33 | 1014.8 |
| 20260510024156 | 74 | 99 | 1.0 | 2.0 | 0.00 | 0.00 | 0.00 | 33 | 1014.9 |
| 20260510024143 | 74 | 99 | 1.0 | 2.0 | 0.00 | 0.00 | 0.00 | 33 | 1014.9 |
| 20260510024120 | 74 | 97 | 0.0 | 2.0 | 0.00 | 0.00 | 0.00 | 33 | 1014.9 |
| 20260510023849 | 74 | 91 | 1.0 | 2.0 | 0.00 | 0.00 | 0.00 | 33 | 1014.9 |
| 20260510023535 | 74 | 98 | 1.0 | 2.0 | 0.00 | 0.00 | 0.00 | 33 | 1014.9 |
| 20260510023502 | 75 | 113 | 1.0 | 3.0 | 0.00 | 0.00 | 0.00 | 33 | 1014.9 |
| 20260510023449 | 75 | 110 | 0.0 | 3.0 | 0.00 | 0.00 | 0.00 | 33 | 1015.0 |
| 20260510023129 | 75 | 105 | 1.0 | 3.0 | 0.00 | 0.00 | 0.00 | 33 | 1015.0 |
| 20260510023030 | 75 | 105 | 1.0 | 3.0 | 0.00 | 0.00 | 0.00 | 33 | 1015.0 |
| 20260510022923 | 75 | 105 | 1.0 | 3.0 | 0.00 | 0.00 | 0.00 | 33 | 1015.0 |
| 20260510022825 | 75 | 101 | 0.0 | 3.0 | 0.00 | 0.00 | 0.00 | 33 | 1015.0 |
| 20260510022721 | 75 | 88 | 1.0 | 3.0 | 0.00 | 0.00 | 0.00 | 34 | 1015.0 |
| 20260510022702 | 75 | 85 | 1.0 | 3.0 | 0.00 | 0.00 | 0.00 | 33 | 1015.0 |
| 20260510022649 | 75 | 87 | 1.0 | 3.0 | 0.00 | 0.00 | 0.00 | 33 | 1015.0 |
| 20260510022314 | 75 | 84 | 1.0 | 4.0 | 0.00 | 0.00 | 0.00 | 33 | 1015.1 |
| 20260510022214 | 75 | 84 | 2.0 | 4.0 | 0.00 | 0.00 | 0.00 | 33 | 1015.0 |
| 20260510022113 | 75 | 93 | 2.0 | 4.0 | 0.00 | 0.00 | 0.00 | 33 | 1015.0 |
| 20260510022016 | 75 | 78 | 1.0 | 4.0 | 0.00 | 0.00 | 0.00 | 33 | 1015.0 |
| 20260510021906 | 75 | 107 | 1.0 | 4.0 | 0.00 | 0.00 | 0.00 | 33 | 1015.0 |
| 20260510021805 | 75 | 57 | 1.0 | 4.0 | 0.00 | 0.00 | 0.00 | 33 | 1015.0 |
| 20260510021711 | 75 | 88 | 1.0 | 4.0 | 0.00 | 0.00 | 0.00 | 34 | 1015.0 |
| 20260510021654 | 75 | 65 | 1.0 | 4.0 | 0.00 | 0.00 | 0.00 | 34 | 1015.0 |
| 20260510021639 | 75 | 80 | 2.0 | 4.0 | 0.00 | 0.00 | 0.00 | 34 | 1015.0 |
| 20260510021303 | 75 | 81 | 1.0 | 3.0 | 0.00 | 0.00 | 0.00 | 34 | 1015.1 |
| 20260510021239 | 76 | 72 | 2.0 | 3.0 | 0.00 | 0.00 | 0.00 | 34 | 1015.1 |
| 20260510021230 | 76 | 53 | 2.0 | 3.0 | 0.00 | 0.00 | 0.00 | 34 | 1015.1 |
| 20260510020901 | 76 | 51 | 0.0 | 4.0 | 0.00 | 0.00 | 0.00 | 34 | 1015.1 |
| 20260510020801 | 76 | 102 | 1.0 | 4.0 | 0.00 | 0.00 | 0.00 | 35 | 1015.1 |
| 20260510020701 | 75 | 101 | 1.0 | 4.0 | 0.00 | 0.00 | 0.00 | 35 | 1015.1 |
| 20260510020603 | 75 | 101 | 1.0 | 4.0 | 0.00 | 0.00 | 0.00 | 34 | 1015.0 |
| 20260510020507 | 76 | 81 | 1.0 | 4.0 | 0.00 | 0.00 | 0.00 | 34 | 1015.0 |
| 20260510020402 | 76 | 98 | 1.0 | 4.0 | 0.00 | 0.00 | 0.00 | 34 | 1015.0 |
| 20260510020302 | 76 | 103 | 2.0 | 4.0 | 0.00 | 0.00 | 0.00 | 34 | 1015.0 |
| 20260510020203 | 76 | 87 | 2.0 | 4.0 | 0.00 | 0.00 | 0.00 | 34 | 1015.1 |
| 20260510020101 | 76 | 68 | 2.0 | 4.0 | 0.00 | 0.00 | 0.00 | 33 | 1015.0 |
| 20260510020006 | 76 | 91 | 1.0 | 4.0 | 0.00 | 0.00 | 0.00 | 33 | 1015.0 |
| 20260510015901 | 76 | 86 | 1.0 | 4.0 | 0.00 | 0.00 | 0.00 | 33 | 1015.1 |
| 20260510015801 | 76 | 86 | 2.0 | 4.0 | 0.00 | 0.00 | 0.00 | 33 | 1015.1 |
| 20260510015701 | 76 | 96 | 2.0 | 4.0 | 0.00 | 0.00 | 0.00 | 33 | 1015.1 |
| 20260510015601 | 76 | 80 | 2.0 | 4.0 | 0.00 | 0.00 | 0.00 | 33 | 1015.1 |
| 20260510015502 | 76 | 84 | 2.0 | 4.0 | 0.00 | 0.00 | 0.00 | 32 | 1015.1 |
| 20260510015401 | 76 | 93 | 2.0 | 5.0 | 0.00 | 0.00 | 0.00 | 32 | 1015.1 |
| 20260510015306 | 76 | 73 | 2.0 | 5.0 | 0.00 | 0.00 | 0.00 | 32 | 1015.1 |
| 20260510015200 | 76 | 63 | 2.0 | 5.0 | 0.00 | 0.00 | 0.00 | 32 | 1015.1 |
| 20260510015101 | 76 | 12 | 2.0 | 5.0 | 0.00 | 0.00 | 0.00 | 32 | 1015.1 |
| 20260510015000 | 76 | 67 | 2.0 | 5.0 | 0.00 | 0.00 | 0.00 | 32 | 1015.1 |
| 20260510014903 | 76 | 97 | 2.0 | 5.0 | 0.00 | 0.00 | 0.00 | 32 | 1015.1 |
| 20260510014801 | 76 | 47 | 2.0 | 5.0 | 0.00 | 0.00 | 0.00 | 32 | 1015.1 |
| 20260510014700 | 76 | 69 | 2.0 | 5.0 | 0.00 | 0.00 | 0.00 | 32 | 1015.1 |
| 20260510014631 | 76 | 73 | 2.0 | 7.0 | 0.00 | 0.00 | 0.00 | 33 | 1015.2 |
| 20260510014617 | 76 | 58 | 2.0 | 7.0 | 0.00 | 0.00 | 0.00 | 31 | 1015.2 |
| 20260510014554 | 76 | 41 | 2.0 | 7.0 | 0.00 | 0.00 | 0.00 | 32 | 1015.2 |
| 20260510014323 | 76 | 119 | 2.0 | 7.0 | 0.00 | 0.00 | 0.00 | 32 | 1015.3 |
| 20260510014001 | 76 | 67 | 2.0 | 7.0 | 0.00 | 0.00 | 0.00 | 32 | 1015.3 |
| 20260510013901 | 76 | 85 | 2.0 | 7.0 | 0.00 | 0.00 | 0.00 | 32 | 1015.3 |
| 20260510013801 | 76 | 86 | 2.0 | 7.0 | 0.00 | 0.00 | 0.00 | 32 | 1015.3 |
| 20260510013701 | 76 | 88 | 1.0 | 7.0 | 0.00 | 0.00 | 0.00 | 33 | 1015.3 |
| 20260510013602 | 76 | 44 | 2.0 | 4.0 | 0.00 | 0.00 | 0.00 | 33 | 1015.2 |
| 20260510013504 | 76 | 148 | 1.0 | 4.0 | 0.00 | 0.00 | 0.00 | 32 | 1015.2 |
| 20260510013401 | 76 | 80 | 1.0 | 4.0 | 0.00 | 0.00 | 0.00 | 33 | 1015.2 |
| 20260510013301 | 76 | 73 | 1.0 | 4.0 | 0.00 | 0.00 | 0.00 | 33 | 1015.2 |
| 20260510013201 | 76 | 95 | 1.0 | 4.0 | 0.00 | 0.00 | 0.00 | 33 | 1015.2 |
| 20260510013100 | 76 | 82 | 1.0 | 4.0 | 0.00 | 0.00 | 0.00 | 33 | 1015.2 |
| 20260510013003 | 76 | 78 | 1.0 | 4.0 | 0.00 | 0.00 | 0.00 | 33 | 1015.3 |
| 20260510012901 | 76 | 171 | 1.0 | 4.0 | 0.00 | 0.00 | 0.00 | 33 | 1015.3 |
| 20260510012803 | 76 | 104 | 1.0 | 4.0 | 0.00 | 0.00 | 0.00 | 32 | 1015.2 |
| 20260510012701 | 76 | 111 | 1.0 | 4.0 | 0.00 | 0.00 | 0.00 | 32 | 1015.3 |
| 20260510012616 | 77 | 101 | 2.0 | 4.0 | 0.00 | 0.00 | 0.00 | 33 | 1015.3 |
| 20260510012559 | 77 | 94 | 2.0 | 5.0 | 0.00 | 0.00 | 0.00 | 33 | 1015.3 |
| 20260510012536 | 77 | 37 | 2.0 | 8.0 | 0.00 | 0.00 | 0.00 | 33 | 1015.3 |
| 20260510012306 | 77 | 60 | 2.0 | 8.0 | 0.00 | 0.00 | 0.00 | 33 | 1015.4 |
| 20260510012251 | 77 | 84 | 2.0 | 8.0 | 0.00 | 0.00 | 0.00 | 34 | 1015.4 |
| 20260510011858 | 77 | 71 | 1.0 | 8.0 | 0.00 | 0.00 | 0.00 | 33 | 1015.5 |
| 20260510011753 | 77 | 79 | 2.0 | 8.0 | 0.00 | 0.00 | 0.00 | 33 | 1015.4 |
| 20260510011739 | 77 | 96 | 4.0 | 8.0 | 0.00 | 0.00 | 0.00 | 33 | 1015.5 |
| 20260510011727 | 77 | 67 | 4.0 | 8.0 | 0.00 | 0.00 | 0.00 | 32 | 1015.5 |
| 20260510011713 | 77 | 81 | 2.0 | 6.0 | 0.00 | 0.00 | 0.00 | 31 | 1015.5 |
| 20260510011647 | 77 | 71 | 2.0 | 6.0 | 0.00 | 0.00 | 0.00 | 32 | 1015.5 |
| 20260510011636 | 77 | 109 | 2.0 | 6.0 | 0.00 | 0.00 | 0.00 | 32 | 1015.5 |
| 20260510011624 | 77 | 99 | 2.0 | 6.0 | 0.00 | 0.00 | 0.00 | 32 | 1015.5 |
| 20260510011612 | 77 | 104 | 2.0 | 6.0 | 0.00 | 0.00 | 0.00 | 32 | 1015.6 |
| 20260510010615 | 77 | 260 | 2.0 | 5.0 | 0.00 | 0.00 | 0.00 | 32 | 1015.6 |
| 20260510010558 | 77 | 124 | 1.0 | 5.0 | 0.00 | 0.00 | 0.00 | 32 | 1015.5 |
| 20260510010534 | 77 | 94 | 2.0 | 4.0 | 0.00 | 0.00 | 0.00 | 32 | 1015.6 |
| 20260510010521 | 77 | 84 | 2.0 | 4.0 | 0.00 | 0.00 | 0.00 | 32 | 1015.6 |
| 20260510010019 | 77 | 30 | 1.0 | 6.0 | 0.00 | 0.00 | 0.00 | 33 | 1015.6 |
| 20260510005955 | 77 | 110 | 1.0 | 6.0 | 0.00 | 0.00 | 0.00 | 33 | 1015.6 |
| 20260510005944 | 77 | 78 | 2.0 | 6.0 | 0.00 | 0.00 | 0.00 | 33 | 1015.7 |
| 20260510005712 | 77 | 11 | 1.0 | 6.0 | 0.00 | 0.00 | 0.00 | 32 | 1015.7 |
| 20260510005659 | 77 | 352 | 2.0 | 6.0 | 0.00 | 0.00 | 0.00 | 32 | 1015.6 |
| 20260510005634 | 77 | 15 | 3.0 | 6.0 | 0.00 | 0.00 | 0.00 | 31 | 1015.7 |
| 20260510005405 | 78 | 60 | 2.0 | 4.0 | 0.00 | 0.00 | 0.00 | 31 | 1015.7 |
| 20260510005352 | 78 | 60 | 2.0 | 8.0 | 0.00 | 0.00 | 0.00 | 32 | 1015.7 |
| 20260510005340 | 78 | 92 | 2.0 | 8.0 | 0.00 | 0.00 | 0.00 | 32 | 1015.7 |
| 20260510005318 | 78 | 48 | 1.0 | 8.0 | 0.00 | 0.00 | 0.00 | 33 | 1015.7 |
| 20260510005048 | 78 | 57 | 2.0 | 8.0 | 0.00 | 0.00 | 0.00 | 32 | 1015.7 |
| 20260510005036 | 78 | 76 | 1.0 | 8.0 | 0.00 | 0.00 | 0.00 | 32 | 1015.7 |
| 20260510004503 | 78 | 66 | 3.0 | 8.0 | 0.00 | 0.00 | 0.00 | 32 | 1015.7 |
| 20260510004233 | 78 | 91 | 2.0 | 7.0 | 0.00 | 0.00 | 0.00 | 31 | 1015.8 |
| 20260510004219 | 78 | 68 | 1.0 | 7.0 | 0.00 | 0.00 | 0.00 | 31 | 1015.8 |
| 20260510003629 | 78 | 53 | 1.0 | 6.0 | 0.00 | 0.00 | 0.00 | 34 | 1015.8 |
| 20260510003530 | 78 | 94 | 2.0 | 7.0 | 0.00 | 0.00 | 0.00 | 33 | 1015.8 |
| 20260510003429 | 78 | 0 | 2.0 | 7.0 | 0.00 | 0.00 | 0.00 | 32 | 1015.8 |
| 20260510003323 | 78 | 74 | 2.0 | 7.0 | 0.00 | 0.00 | 0.00 | 33 | 1015.8 |
| 20260510003225 | 78 | 95 | 2.0 | 7.0 | 0.00 | 0.00 | 0.00 | 33 | 1015.9 |
| 20260510003131 | 78 | 352 | 2.0 | 7.0 | 0.00 | 0.00 | 0.00 | 34 | 1015.8 |
| 20260510003115 | 78 | 59 | 2.0 | 7.0 | 0.00 | 0.00 | 0.00 | 34 | 1015.9 |
| 20260510003103 | 78 | 28 | 2.0 | 7.0 | 0.00 | 0.00 | 0.00 | 33 | 1015.9 |
| 20260510002820 | 78 | 64 | 3.0 | 7.0 | 0.00 | 0.00 | 0.00 | 35 | 1015.9 |
| 20260510002809 | 78 | 11 | 3.0 | 7.0 | 0.00 | 0.00 | 0.00 | 32 | 1015.9 |
| 20260510002530 | 78 | 12 | 1.0 | 6.0 | 0.00 | 0.00 | 0.00 | 33 | 1016.0 |
| 20260510002506 | 78 | 318 | 1.0 | 6.0 | 0.00 | 0.00 | 0.00 | 33 | 1015.9 |
| 20260510002233 | 78 | 42 | 2.0 | 6.0 | 0.00 | 0.00 | 0.00 | 33 | 1015.9 |
| 20260510001951 | 78 | 348 | 2.0 | 6.0 | 0.00 | 0.00 | 0.00 | 35 | 1015.9 |
| 20260510001813 | 78 | 9 | 2.0 | 6.0 | 0.00 | 0.00 | 0.00 | 33 | 1016.0 |
| 20260510001713 | 78 | 352 | 2.0 | 6.0 | 0.00 | 0.00 | 0.00 | 34 | 1016.0 |
| 20260510001612 | 78 | 31 | 3.0 | 6.0 | 0.00 | 0.00 | 0.00 | 34 | 1016.0 |
| 20260510001512 | 78 | 80 | 3.0 | 5.0 | 0.00 | 0.00 | 0.00 | 34 | 1016.0 |
| 20260510001419 | 78 | 63 | 2.0 | 5.0 | 0.00 | 0.00 | 0.00 | 33 | 1016.0 |
| 20260510001314 | 78 | 92 | 2.0 | 5.0 | 0.00 | 0.00 | 0.00 | 35 | 1016.0 |
| 20260510001210 | 78 | 59 | 2.0 | 6.0 | 0.00 | 0.00 | 0.00 | 35 | 1016.0 |
| 20260510001112 | 78 | 77 | 2.0 | 6.0 | 0.00 | 0.00 | 0.00 | 35 | 1015.9 |
| 20260510001008 | 78 | 42 | 1.0 | 6.0 | 0.00 | 0.00 | 0.00 | 35 | 1016.0 |
| 20260510000916 | 78 | 59 | 2.0 | 6.0 | 0.00 | 0.00 | 0.00 | 35 | 1016.0 |
| 20260510000808 | 78 | 26 | 2.0 | 6.0 | 0.00 | 0.00 | 0.00 | 35 | 1016.0 |
| 20260510000707 | 78 | 336 | 1.0 | 6.0 | 0.00 | 0.00 | 0.00 | 34 | 1016.0 |
| 20260510000608 | 78 | 300 | 2.0 | 6.0 | 0.00 | 0.00 | 0.00 | 34 | 1015.9 |
| 20260510000503 | 78 | 74 | 4.0 | 6.0 | 0.00 | 0.00 | 0.00 | 35 | 1016.0 |
| 20260510000411 | 78 | 0 | 3.0 | 6.0 | 0.00 | 0.00 | 0.00 | 34 | 1015.9 |
| 20260510000304 | 78 | 117 | 2.0 | 6.0 | 0.00 | 0.00 | 0.00 | 34 | 1015.9 |
| 20260510000233 | 78 | 88 | 2.0 | 6.0 | 0.00 | 0.00 | 0.00 | 35 | 1015.9 |
| 20260510000221 | 78 | 180 | 2.0 | 9.0 | 0.00 | 0.00 | 0.00 | 35 | 1016.0 |
| 20260509235911 | 78 | 48 | 3.0 | 9.0 | 0.00 | 0.00 | 0.00 | 34 | 1016.0 |
| 20260509235800 | 78 | 52 | 2.0 | 9.0 | 0.00 | 0.00 | 0.00 | 35 | 1016.0 |
| 20260509235701 | 78 | 61 | 2.0 | 9.0 | 0.00 | 0.00 | 0.00 | 35 | 1016.0 |
| 20260509235601 | 78 | 63 | 2.0 | 9.0 | 0.00 | 0.00 | 0.00 | 34 | 1016.0 |
| 20260509235505 | 78 | 107 | 2.0 | 9.0 | 0.00 | 0.00 | 0.00 | 34 | 1016.0 |
| 20260509235408 | 78 | 96 | 3.0 | 9.0 | 0.00 | 0.00 | 0.00 | 34 | 1016.0 |
| 20260509235306 | 78 | 96 | 4.0 | 9.0 | 0.00 | 0.00 | 0.00 | 35 | 1016.0 |
| 20260509235201 | 77 | 121 | 2.0 | 10.0 | 0.00 | 0.00 | 0.00 | 36 | 1016.0 |
| 20260509235103 | 77 | 72 | 2.0 | 10.0 | 0.00 | 0.00 | 0.00 | 36 | 1016.0 |
| 20260509235028 | 77 | 5 | 1.0 | 10.0 | 0.00 | 0.00 | 0.00 | 35 | 1016.0 |
| 20260509235013 | 77 | 15 | 1.0 | 10.0 | 0.00 | 0.00 | 0.00 | 36 | 1016.1 |
| 20260509234951 | 77 | 62 | 2.0 | 10.0 | 0.00 | 0.00 | 0.00 | 36 | 1016.1 |
| 20260509234637 | 77 | 74 | 4.0 | 10.0 | 0.00 | 0.00 | 0.00 | 34 | 1016.1 |
| 20260509234624 | 78 | 70 | 4.0 | 10.0 | 0.00 | 0.00 | 0.00 | 34 | 1016.1 |
| 20260509234301 | 78 | 64 | 3.0 | 10.0 | 0.00 | 0.00 | 0.00 | 35 | 1016.1 |
| 20260509234233 | 78 | 0 | 3.0 | 5.0 | 0.00 | 0.00 | 0.00 | 34 | 1016.2 |
| 20260509234221 | 78 | 348 | 1.0 | 5.0 | 0.00 | 0.00 | 0.00 | 36 | 1016.2 |
| 20260509233904 | 78 | 58 | 2.0 | 5.0 | 0.00 | 0.00 | 0.00 | 35 | 1016.1 |
| 20260509233802 | 78 | 150 | 1.0 | 5.0 | 0.00 | 0.00 | 0.00 | 34 | 1016.1 |
| 20260509233702 | 78 | 126 | 1.0 | 5.0 | 0.00 | 0.00 | 0.00 | 34 | 1016.2 |
| 20260509233645 | 77 | 237 | 1.0 | 6.0 | 0.00 | 0.00 | 0.00 | 35 | 1016.1 |
| 20260509233634 | 77 | 77 | 2.0 | 6.0 | 0.00 | 0.00 | 0.00 | 35 | 1016.1 |
| 20260509233345 | 77 | 59 | 3.0 | 6.0 | 0.00 | 0.00 | 0.00 | 36 | 1016.2 |
| 20260509233333 | 77 | 348 | 3.0 | 6.0 | 0.00 | 0.00 | 0.00 | 35 | 1016.2 |
| 20260509233323 | 77 | 352 | 3.0 | 6.0 | 0.00 | 0.00 | 0.00 | 37 | 1016.2 |
| 20260509233050 | 77 | 17 | 4.0 | 6.0 | 0.00 | 0.00 | 0.00 | 34 | 1016.2 |
| 20260509232803 | 77 | 330 | 2.0 | 6.0 | 0.00 | 0.00 | 0.00 | 35 | 1016.2 |
| 20260509232752 | 78 | 352 | 1.0 | 5.0 | 0.00 | 0.00 | 0.00 | 35 | 1016.2 |
| 20260509232518 | 77 | 78 | 2.0 | 5.0 | 0.00 | 0.00 | 0.00 | 35 | 1016.2 |
| 20260509232455 | 77 | 301 | 3.0 | 5.0 | 0.00 | 0.00 | 0.00 | 35 | 1016.2 |
| 20260509232442 | 77 | 46 | 3.0 | 5.0 | 0.00 | 0.00 | 0.00 | 35 | 1016.2 |
| 20260509232430 | 77 | 75 | 2.0 | 5.0 | 0.00 | 0.00 | 0.00 | 34 | 1016.2 |
| 20260509232157 | 77 | 27 | 2.0 | 5.0 | 0.00 | 0.00 | 0.00 | 35 | 1016.3 |
| 20260509232135 | 77 | 17 | 2.0 | 5.0 | 0.00 | 0.00 | 0.00 | 34 | 1016.3 |
| 20260509232124 | 77 | 222 | 2.0 | 6.0 | 0.00 | 0.00 | 0.00 | 34 | 1016.3 |
| 20260509231852 | 77 | 297 | 2.0 | 6.0 | 0.00 | 0.00 | 0.00 | 34 | 1016.3 |
| 20260509231556 | 77 | 347 | 2.0 | 8.0 | 0.00 | 0.00 | 0.00 | 36 | 1016.4 |
| 20260509231323 | 77 | 352 | 3.0 | 8.0 | 0.00 | 0.00 | 0.00 | 34 | 1016.4 |
| 20260509231311 | 77 | 284 | 3.0 | 8.0 | 0.00 | 0.00 | 0.00 | 35 | 1016.6 |
| 20260509230805 | 77 | 295 | 4.0 | 8.0 | 0.00 | 0.00 | 0.00 | 34 | 1016.4 |
| 20260509230444 | 77 | 352 | 4.0 | 8.0 | 0.00 | 0.00 | 0.00 | 34 | 1016.4 |
| 20260509230350 | 77 | 9 | 3.0 | 6.0 | 0.00 | 0.00 | 0.00 | 35 | 1016.4 |
| 20260509230243 | 78 | 15 | 2.0 | 6.0 | 0.00 | 0.00 | 0.00 | 34 | 1016.4 |
| 20260509230143 | 78 | 5 | 2.0 | 6.0 | 0.00 | 0.00 | 0.00 | 32 | 1016.4 |
| 20260509230121 | 78 | 299 | 3.0 | 6.0 | 0.00 | 0.00 | 0.00 | 32 | 1016.4 |
| 20260509230108 | 78 | 352 | 2.0 | 6.0 | 0.00 | 0.00 | 0.00 | 34 | 1016.4 |
| 20260509225739 | 78 | 273 | 2.0 | 6.0 | 0.00 | 0.00 | 0.00 | 33 | 1016.6 |
| 20260509225638 | 78 | 340 | 2.0 | 6.0 | 0.00 | 0.00 | 0.00 | 33 | 1016.7 |
| 20260509225540 | 77 | 277 | 1.0 | 6.0 | 0.00 | 0.00 | 0.00 | 32 | 1016.7 |
| 20260509225437 | 78 | 40 | 2.0 | 6.0 | 0.00 | 0.00 | 0.00 | 32 | 1016.7 |
| 20260509225346 | 78 | 22 | 2.0 | 6.0 | 0.00 | 0.00 | 0.00 | 33 | 1016.7 |
| 20260509225237 | 78 | 346 | 3.0 | 6.0 | 0.00 | 0.00 | 0.00 | 32 | 1016.7 |
| 20260509225138 | 78 | 324 | 3.0 | 6.0 | 0.00 | 0.00 | 0.00 | 32 | 1016.7 |
| 20260509225035 | 78 | 283 | 4.0 | 6.0 | 0.00 | 0.00 | 0.00 | 32 | 1016.7 |
| 20260509224937 | 78 | 285 | 3.0 | 6.0 | 0.00 | 0.00 | 0.00 | 32 | 1016.7 |
| 20260509224845 | 78 | 346 | 2.0 | 5.0 | 0.00 | 0.00 | 0.00 | 32 | 1016.8 |
| 20260509224832 | 78 | 273 | 2.0 | 5.0 | 0.00 | 0.00 | 0.00 | 32 | 1016.8 |
| 20260509224820 | 77 | 336 | 2.0 | 7.0 | 0.00 | 0.00 | 0.00 | 32 | 1016.8 |
| 20260509224423 | 77 | 319 | 1.0 | 7.0 | 0.00 | 0.00 | 0.00 | 34 | 1016.8 |
| 20260509224354 | 77 | 273 | 2.0 | 7.0 | 0.00 | 0.00 | 0.00 | 32 | 1016.9 |
| 20260509224340 | 77 | 265 | 2.0 | 7.0 | 0.00 | 0.00 | 0.00 | 32 | 1016.9 |
| 20260509224101 | 77 | 5 | 1.0 | 7.0 | 0.00 | 0.00 | 0.00 | 32 | 1016.9 |
| 20260509224050 | 76 | 116 | 2.0 | 7.0 | 0.00 | 0.00 | 0.00 | 33 | 1016.9 |
| 20260509223714 | 76 | 90 | 1.0 | 7.0 | 0.00 | 0.00 | 0.00 | 33 | 1017.0 |
| 20260509223615 | 76 | 39 | 1.0 | 6.0 | 0.00 | 0.00 | 0.00 | 34 | 1016.9 |
| 20260509223512 | 76 | 105 | 2.0 | 6.0 | 0.00 | 0.00 | 0.00 | 31 | 1017.0 |
| 20260509223414 | 76 | 11 | 3.0 | 6.0 | 0.00 | 0.00 | 0.00 | 33 | 1017.0 |
| 20260509223345 | 76 | 73 | 4.0 | 6.0 | 0.00 | 0.00 | 0.00 | 33 | 1017.0 |
| 20260509223330 | 77 | 50 | 2.0 | 6.0 | 0.00 | 0.00 | 0.00 | 32 | 1017.0 |
| 20260509223049 | 77 | 319 | 3.0 | 6.0 | 0.00 | 0.00 | 0.00 | 32 | 1017.0 |
| 20260509223038 | 77 | 352 | 4.0 | 6.0 | 0.00 | 0.00 | 0.00 | 33 | 1017.0 |
| 20260509222709 | 77 | 350 | 3.0 | 6.0 | 0.00 | 0.00 | 0.00 | 32 | 1017.0 |
| 20260509222637 | 77 | 310 | 3.0 | 5.0 | 0.00 | 0.00 | 0.00 | 33 | 1017.0 |
| 20260509222626 | 77 | 324 | 3.0 | 5.0 | 0.00 | 0.00 | 0.00 | 32 | 1017.1 |
| 20260509222307 | 77 | 55 | 1.0 | 5.0 | 0.00 | 0.00 | 0.00 | 33 | 1017.1 |
| 20260509222203 | 77 | 60 | 1.0 | 5.0 | 0.00 | 0.00 | 0.00 | 34 | 1017.0 |
| 20260509222103 | 77 | 13 | 2.0 | 5.0 | 0.00 | 0.00 | 0.00 | 33 | 1017.1 |
| 20260509222006 | 77 | 349 | 3.0 | 5.0 | 0.00 | 0.00 | 0.00 | 33 | 1017.0 |
| 20260509221903 | 77 | 36 | 3.0 | 5.0 | 0.00 | 0.00 | 0.00 | 34 | 1017.1 |
| 20260509221818 | 77 | 15 | 3.0 | 5.0 | 0.00 | 0.00 | 0.00 | 33 | 1017.1 |
| 20260509221806 | 77 | 95 | 3.0 | 5.0 | 0.00 | 0.00 | 0.00 | 33 | 1017.1 |
| 20260509221753 | 78 | 67 | 3.0 | 5.0 | 0.00 | 0.00 | 0.00 | 33 | 1017.2 |
| 20260509221404 | 78 | 65 | 2.0 | 4.0 | 0.00 | 0.00 | 0.00 | 33 | 1017.2 |
| 20260509221304 | 78 | 46 | 2.0 | 4.0 | 0.00 | 0.00 | 0.00 | 35 | 1017.3 |
| 20260509221201 | 77 | 331 | 2.0 | 4.0 | 0.00 | 0.00 | 0.00 | 35 | 1017.3 |
| 20260509221134 | 77 | 73 | 1.0 | 4.0 | 0.00 | 0.00 | 0.00 | 35 | 1017.3 |
| 20260509221122 | 77 | 71 | 1.0 | 6.0 | 0.00 | 0.00 | 0.00 | 35 | 1017.2 |
| 20260509220800 | 77 | 328 | 2.0 | 7.0 | 0.00 | 0.00 | 0.00 | 34 | 1017.3 |
| 20260509220703 | 77 | 184 | 2.0 | 7.0 | 0.00 | 0.00 | 0.00 | 36 | 1017.3 |
| 20260509220601 | 77 | 306 | 2.0 | 7.0 | 0.00 | 0.00 | 0.00 | 35 | 1017.3 |
| 20260509220502 | 77 | 251 | 2.0 | 7.0 | 0.00 | 0.00 | 0.00 | 35 | 1017.3 |
| 20260509220402 | 77 | 267 | 2.0 | 7.0 | 0.00 | 0.00 | 0.00 | 36 | 1017.3 |
| 20260509220302 | 77 | 303 | 3.0 | 7.0 | 0.00 | 0.00 | 0.00 | 36 | 1017.4 |
| 20260509220206 | 77 | 348 | 4.0 | 7.0 | 0.00 | 0.00 | 0.00 | 36 | 1017.3 |
| 20260509220000 | 77 | 270 | 2.0 | 7.0 | 0.00 | 0.00 | 0.00 | 36 | 1017.4 |
| 20260509215902 | 77 | 287 | 2.0 | 5.0 | 0.00 | 0.00 | 0.00 | 37 | 1017.4 |
| 20260509215802 | 77 | 319 | 3.0 | 6.0 | 0.00 | 0.00 | 0.00 | 36 | 1017.4 |
| 20260509215703 | 77 | 273 | 3.0 | 6.0 | 0.00 | 0.00 | 0.00 | 37 | 1017.4 |
| 20260509215601 | 77 | 314 | 3.0 | 6.0 | 0.00 | 0.00 | 0.00 | 36 | 1017.4 |
| 20260509215502 | 77 | 280 | 3.0 | 6.0 | 0.00 | 0.00 | 0.00 | 36 | 1017.4 |
| 20260509215401 | 77 | 312 | 3.0 | 6.0 | 0.00 | 0.00 | 0.00 | 37 | 1017.4 |
| 20260509215305 | 77 | 352 | 3.0 | 6.0 | 0.00 | 0.00 | 0.00 | 36 | 1017.4 |
| 20260509215245 | 77 | 333 | 3.0 | 6.0 | 0.00 | 0.00 | 0.00 | 37 | 1017.4 |
| 20260509215231 | 77 | 336 | 4.0 | 6.0 | 0.00 | 0.00 | 0.00 | 36 | 1017.4 |
| 20260509215219 | 77 | 5 | 3.0 | 6.0 | 0.00 | 0.00 | 0.00 | 37 | 1017.4 |
| 20260509214935 | 76 | 15 | 3.0 | 6.0 | 0.00 | 0.00 | 0.00 | 36 | 1017.5 |
| 20260509214923 | 76 | 298 | 2.0 | 6.0 | 0.00 | 0.00 | 0.00 | 36 | 1017.5 |
| 20260509214652 | 76 | 317 | 2.0 | 6.0 | 0.00 | 0.00 | 0.00 | 37 | 1017.5 |
| 20260509214302 | 76 | 65 | 2.0 | 6.0 | 0.00 | 0.00 | 0.00 | 36 | 1017.5 |
| 20260509214200 | 76 | 318 | 3.0 | 6.0 | 0.00 | 0.00 | 0.00 | 37 | 1017.6 |
| 20260509214104 | 76 | 24 | 4.0 | 6.0 | 0.00 | 0.00 | 0.00 | 37 | 1017.6 |
| 20260509214000 | 76 | 333 | 4.0 | 6.0 | 0.00 | 0.00 | 0.00 | 37 | 1017.5 |
| 20260509213906 | 76 | 344 | 2.0 | 6.0 | 0.00 | 0.00 | 0.00 | 37 | 1017.5 |
| 20260509213800 | 76 | 9 | 1.0 | 5.0 | 0.00 | 0.00 | 0.00 | 36 | 1017.5 |
| 20260509213706 | 76 | 333 | 1.0 | 7.0 | 0.00 | 0.00 | 0.00 | 37 | 1017.5 |
| 20260509213602 | 76 | 306 | 1.0 | 7.0 | 0.00 | 0.00 | 0.00 | 36 | 1017.6 |
| 20260509213506 | 76 | 340 | 2.0 | 7.0 | 0.00 | 0.00 | 0.00 | 36 | 1017.5 |
| 20260509213403 | 76 | 137 | 2.0 | 7.0 | 0.00 | 0.00 | 0.00 | 37 | 1017.5 |
| 20260509213318 | 76 | 98 | 2.0 | 7.0 | 0.00 | 0.00 | 0.00 | 35 | 1017.5 |
| 20260509213200 | 76 | 80 | 2.0 | 7.0 | 0.00 | 0.00 | 0.00 | 36 | 1017.5 |
| 20260509213104 | 76 | 59 | 2.0 | 7.0 | 0.00 | 0.00 | 0.00 | 37 | 1017.5 |
| 20260509213042 | 76 | 22 | 3.0 | 7.0 | 0.00 | 0.00 | 0.00 | 37 | 1017.5 |
| 20260509213031 | 76 | 0 | 4.0 | 7.0 | 0.00 | 0.00 | 0.00 | 37 | 1017.6 |
| 20260509212705 | 76 | 342 | 4.0 | 6.0 | 0.00 | 0.00 | 0.00 | 36 | 1017.6 |
| 20260509212601 | 76 | 47 | 3.0 | 6.0 | 0.00 | 0.00 | 0.00 | 38 | 1017.6 |
| 20260509212505 | 76 | 37 | 2.0 | 6.0 | 0.00 | 0.00 | 0.00 | 36 | 1017.6 |
| 20260509212401 | 76 | 37 | 2.0 | 6.0 | 0.00 | 0.00 | 0.00 | 38 | 1017.6 |
| 20260509212312 | 76 | 59 | 2.0 | 4.0 | 0.00 | 0.00 | 0.00 | 36 | 1017.6 |
| 20260509212202 | 76 | 24 | 2.0 | 4.0 | 0.00 | 0.00 | 0.00 | 38 | 1017.7 |
| 20260509212135 | 76 | 333 | 2.0 | 5.0 | 0.00 | 0.00 | 0.00 | 37 | 1017.7 |
| 20260509212123 | 76 | 352 | 2.0 | 6.0 | 0.00 | 0.00 | 0.00 | 38 | 1017.7 |
| 20260509211806 | 76 | 352 | 2.0 | 10.0 | 0.00 | 0.00 | 0.00 | 40 | 1017.7 |
| 20260509211704 | 75 | 9 | 1.0 | 10.0 | 0.00 | 0.00 | 0.00 | 39 | 1017.7 |
| 20260509211617 | 75 | 36 | 2.0 | 10.0 | 0.00 | 0.00 | 0.00 | 40 | 1017.7 |
| 20260509211505 | 75 | 5 | 3.0 | 10.0 | 0.00 | 0.00 | 0.00 | 38 | 1017.7 |
| 20260509211401 | 75 | 311 | 3.0 | 10.0 | 0.00 | 0.00 | 0.00 | 37 | 1017.7 |
| 20260509211313 | 75 | 292 | 3.0 | 10.0 | 0.00 | 0.00 | 0.00 | 37 | 1017.7 |
| 20260509211201 | 75 | 287 | 3.0 | 10.0 | 0.00 | 0.00 | 0.00 | 36 | 1017.8 |
| 20260509211103 | 76 | 17 | 5.0 | 10.0 | 0.00 | 0.00 | 0.00 | 38 | 1017.8 |
| 20260509211000 | 76 | 331 | 5.0 | 10.0 | 0.00 | 0.00 | 0.00 | 36 | 1017.8 |
| 20260509210904 | 76 | 117 | 3.0 | 10.0 | 0.00 | 0.00 | 0.00 | 37 | 1017.8 |
| 20260509210806 | 76 | 24 | 2.0 | 9.0 | 0.00 | 0.00 | 0.00 | 37 | 1017.9 |
| 20260509210704 | 76 | 341 | 3.0 | 7.0 | 0.00 | 0.00 | 0.00 | 36 | 1017.8 |
| 20260509210602 | 76 | 81 | 3.0 | 7.0 | 0.00 | 0.00 | 0.00 | 36 | 1017.9 |
| 20260509210507 | 76 | 54 | 2.0 | 7.0 | 0.00 | 0.00 | 0.00 | 38 | 1017.9 |
| 20260509210401 | 76 | 17 | 1.0 | 6.0 | 0.00 | 0.00 | 0.00 | 38 | 1017.9 |
| 20260509210307 | 76 | 113 | 2.0 | 6.0 | 0.00 | 0.00 | 0.00 | 39 | 1017.9 |
| 20260509210234 | 76 | 59 | 2.0 | 6.0 | 0.00 | 0.00 | 0.00 | 38 | 1018.0 |
| 20260509210220 | 76 | 176 | 2.0 | 6.0 | 0.00 | 0.00 | 0.00 | 39 | 1017.9 |
| 20260509210210 | 75 | 346 | 3.0 | 6.0 | 0.00 | 0.00 | 0.00 | 39 | 1018.0 |
| 20260509210157 | 75 | 105 | 3.0 | 6.0 | 0.00 | 0.00 | 0.00 | 39 | 1018.0 |
| 20260509205602 | 75 | 107 | 2.0 | 7.0 | 0.00 | 0.00 | 0.00 | 40 | 1017.9 |
| 20260509205507 | 75 | 32 | 2.0 | 10.0 | 0.00 | 0.00 | 0.00 | 39 | 1017.9 |
| 20260509205446 | 75 | 15 | 2.0 | 10.0 | 0.00 | 0.00 | 0.00 | 39 | 1017.9 |
| 20260509205435 | 75 | 36 | 3.0 | 10.0 | 0.00 | 0.00 | 0.00 | 39 | 1018.0 |
| 20260509205103 | 75 | 20 | 2.0 | 10.0 | 0.00 | 0.00 | 0.00 | 40 | 1018.0 |
| 20260509205001 | 75 | 36 | 2.0 | 10.0 | 0.00 | 0.00 | 0.00 | 38 | 1018.0 |
| 20260509204902 | 75 | 56 | 3.0 | 10.0 | 0.00 | 0.00 | 0.00 | 39 | 1018.0 |
| 20260509204802 | 75 | 30 | 4.0 | 10.0 | 0.00 | 0.00 | 0.00 | 38 | 1017.9 |
| 20260509204704 | 75 | 38 | 4.0 | 10.0 | 0.00 | 0.00 | 0.00 | 38 | 1018.0 |
| 20260509204601 | 75 | 93 | 3.0 | 10.0 | 0.00 | 0.00 | 0.00 | 38 | 1018.0 |
| 20260509204503 | 75 | 57 | 2.0 | 6.0 | 0.00 | 0.00 | 0.00 | 38 | 1018.1 |
| 20260509204403 | 75 | 48 | 2.0 | 6.0 | 0.00 | 0.00 | 0.00 | 39 | 1018.1 |
| 20260509204346 | 75 | 117 | 1.0 | 6.0 | 0.00 | 0.00 | 0.00 | 38 | 1018.1 |
| 20260509204322 | 75 | 302 | 2.0 | 6.0 | 0.00 | 0.00 | 0.00 | 38 | 1018.1 |
| 20260509204001 | 75 | 65 | 3.0 | 6.0 | 0.00 | 0.00 | 0.00 | 40 | 1018.1 |
| 20260509203903 | 75 | 24 | 3.0 | 7.0 | 0.00 | 0.00 | 0.00 | 39 | 1018.1 |
| 20260509203802 | 75 | 33 | 3.0 | 7.0 | 0.00 | 0.00 | 0.00 | 38 | 1018.1 |
| 20260509203702 | 75 | 30 | 3.0 | 7.0 | 0.00 | 0.00 | 0.00 | 39 | 1018.1 |
| 20260509203605 | 75 | 50 | 3.0 | 7.0 | 0.00 | 0.00 | 0.00 | 38 | 1018.2 |
| 20260509203502 | 75 | 5 | 1.0 | 7.0 | 0.00 | 0.00 | 0.00 | 39 | 1018.2 |
| 20260509203403 | 75 | 281 | 1.0 | 7.0 | 0.00 | 0.00 | 0.00 | 38 | 1018.2 |
| 20260509203302 | 75 | 51 | 2.0 | 7.0 | 0.00 | 0.00 | 0.00 | 39 | 1018.2 |
| 20260509203201 | 75 | 352 | 4.0 | 7.0 | 0.00 | 0.00 | 0.00 | 39 | 1018.2 |
| 20260509203103 | 75 | 36 | 3.0 | 7.0 | 0.00 | 0.00 | 0.00 | 40 | 1018.3 |
| 20260509203003 | 75 | 176 | 2.0 | 7.0 | 0.00 | 0.00 | 0.00 | 39 | 1018.2 |
| 20260509202902 | 75 | 164 | 3.0 | 7.0 | 0.00 | 0.00 | 0.00 | 40 | 1018.2 |
| 20260509202844 | 74 | 134 | 3.0 | 7.0 | 0.00 | 0.00 | 0.00 | 41 | 1018.3 |
| 20260509202821 | 74 | 47 | 3.0 | 7.0 | 0.00 | 0.00 | 0.00 | 40 | 1018.3 |
| 20260509202503 | 75 | 73 | 4.0 | 7.0 | 0.00 | 0.00 | 0.00 | 39 | 1018.3 |
| 20260509202433 | 75 | 82 | 4.0 | 7.0 | 0.00 | 0.00 | 0.00 | 39 | 1018.3 |
| 20260509202420 | 75 | 32 | 3.0 | 7.0 | 0.00 | 0.00 | 0.00 | 40 | 1018.3 |
| 20260509202356 | 75 | 31 | 2.0 | 6.0 | 0.00 | 0.00 | 0.00 | 39 | 1018.3 |
| 20260509202343 | 75 | 329 | 2.0 | 6.0 | 0.00 | 0.00 | 0.00 | 39 | 1018.3 |
| 20260509201800 | 75 | 96 | 2.0 | 6.0 | 0.00 | 0.00 | 0.00 | 40 | 1018.4 |
| 20260509201706 | 74 | 103 | 2.0 | 5.0 | 0.00 | 0.00 | 0.00 | 41 | 1018.4 |
| 20260509201600 | 74 | 137 | 2.0 | 6.0 | 0.00 | 0.00 | 0.00 | 42 | 1018.4 |
| 20260509201504 | 74 | 207 | 2.0 | 6.0 | 0.00 | 0.00 | 0.00 | 41 | 1018.4 |
| 20260509201401 | 74 | 158 | 2.0 | 6.0 | 0.00 | 0.00 | 0.00 | 41 | 1018.4 |
| 20260509201308 | 74 | 114 | 1.0 | 6.0 | 0.00 | 0.00 | 0.00 | 41 | 1018.4 |
| 20260509201201 | 74 | 63 | 2.0 | 6.0 | 0.00 | 0.00 | 0.00 | 41 | 1018.4 |
| 20260509201106 | 74 | 65 | 2.0 | 6.0 | 0.00 | 0.00 | 0.00 | 41 | 1018.5 |
| 20260509201001 | 74 | 5 | 3.0 | 6.0 | 0.00 | 0.00 | 0.00 | 40 | 1018.5 |
| 20260509200907 | 74 | 316 | 3.0 | 6.0 | 0.00 | 0.00 | 0.00 | 39 | 1018.6 |
| 20260509200801 | 75 | 49 | 3.0 | 6.0 | 0.00 | 0.00 | 0.00 | 40 | 1018.6 |
| 20260509200704 | 75 | 62 | 2.0 | 6.0 | 0.00 | 0.00 | 0.00 | 41 | 1018.6 |
| 20260509200601 | 75 | 105 | 2.0 | 5.0 | 0.00 | 0.00 | 0.00 | 42 | 1018.6 |
| 20260509200534 | 75 | 82 | 2.0 | 5.0 | 0.00 | 0.00 | 0.00 | 41 | 1018.6 |
| 20260509200518 | 75 | 94 | 2.0 | 5.0 | 0.00 | 0.00 | 0.00 | 41 | 1018.6 |
| 20260509200507 | 75 | 112 | 3.0 | 5.0 | 0.00 | 0.00 | 0.00 | 40 | 1018.6 |
| 20260509200223 | 75 | 69 | 1.0 | 5.0 | 0.00 | 0.00 | 0.00 | 41 | 1018.6 |
| 20260509195903 | 74 | 338 | 1.0 | 7.0 | 0.00 | 0.00 | 0.00 | 42 | 1018.6 |
| 20260509195802 | 74 | 98 | 1.0 | 7.0 | 0.00 | 0.00 | 0.00 | 42 | 1018.6 |
| 20260509195703 | 74 | 287 | 1.0 | 7.0 | 0.00 | 0.00 | 0.00 | 42 | 1018.6 |
| 20260509195601 | 74 | 260 | 2.0 | 8.0 | 0.00 | 0.00 | 0.00 | 42 | 1018.7 |
| 20260509195535 | 74 | 169 | 2.0 | 8.0 | 0.00 | 0.00 | 0.00 | 42 | 1018.7 |
| 20260509195521 | 74 | 173 | 2.0 | 8.0 | 0.00 | 0.00 | 0.00 | 42 | 1018.7 |
| 20260509195510 | 74 | 69 | 2.0 | 8.0 | 0.00 | 0.00 | 0.00 | 42 | 1018.7 |
| 20260509195444 | 74 | 180 | 3.0 | 8.0 | 0.00 | 0.00 | 0.00 | 43 | 1018.7 |
| 20260509195434 | 74 | 134 | 3.0 | 8.0 | 0.00 | 0.00 | 0.00 | 42 | 1018.7 |
| 20260509194943 | 74 | 188 | 4.0 | 8.0 | 0.00 | 0.00 | 0.00 | 42 | 1018.7 |
| 20260509194920 | 74 | 78 | 2.0 | 8.0 | 0.00 | 0.00 | 0.00 | 42 | 1018.7 |
| 20260509194906 | 74 | 155 | 3.0 | 8.0 | 0.00 | 0.00 | 0.00 | 42 | 1018.7 |
| 20260509194855 | 74 | 5 | 3.0 | 8.0 | 0.00 | 0.00 | 0.00 | 42 | 1018.7 |
| 20260509194841 | 74 | 105 | 2.0 | 8.0 | 0.00 | 0.00 | 0.00 | 42 | 1018.7 |
| 20260509194830 | 74 | 90 | 2.0 | 7.0 | 0.00 | 0.00 | 0.00 | 44 | 1018.7 |
| 20260509194806 | 74 | 71 | 2.0 | 7.0 | 0.00 | 0.00 | 0.00 | 43 | 1018.8 |
| 20260509194505 | 73 | 0 | 1.0 | 7.0 | 0.00 | 0.00 | 0.00 | 44 | 1018.7 |
| 20260509194454 | 73 | 5 | 1.0 | 7.0 | 0.00 | 0.00 | 0.00 | 44 | 1018.7 |
| 20260509194441 | 73 | 198 | 1.0 | 7.0 | 0.00 | 0.00 | 0.00 | 44 | 1018.7 |
| 20260509194420 | 73 | 229 | 2.0 | 7.0 | 0.00 | 0.00 | 0.00 | 44 | 1018.8 |
| 20260509193927 | 73 | 59 | 4.0 | 8.0 | 0.00 | 0.00 | 0.00 | 43 | 1018.8 |
| 20260509193916 | 73 | 84 | 4.0 | 8.0 | 0.00 | 0.00 | 0.00 | 43 | 1018.8 |
| 20260509193416 | 73 | 106 | 3.0 | 8.0 | 0.00 | 0.00 | 0.00 | 44 | 1018.8 |
| 20260509192638 | 73 | 174 | 2.0 | 8.0 | 0.00 | 0.00 | 0.00 | 44 | 1018.9 |
| 20260509192624 | 73 | 56 | 3.0 | 8.0 | 0.00 | 0.00 | 0.00 | 44 | 1018.9 |
| 20260509192334 | 73 | 61 | 2.0 | 8.0 | 0.00 | 0.00 | 0.00 | 44 | 1019.0 |
| 20260509192310 | 73 | 88 | 3.0 | 8.0 | 0.00 | 0.00 | 0.00 | 44 | 1019.0 |
| 20260509192300 | 73 | 30 | 4.0 | 8.0 | 0.00 | 0.00 | 0.00 | 43 | 1018.9 |
| 20260509192246 | 73 | 178 | 3.0 | 8.0 | 0.00 | 0.00 | 0.00 | 42 | 1018.9 |
| 20260509192235 | 73 | 117 | 4.0 | 8.0 | 0.00 | 0.00 | 0.00 | 43 | 1018.9 |
| 20260509191733 | 73 | 68 | 3.0 | 9.0 | 0.00 | 0.00 | 0.00 | 44 | 1018.9 |
| 20260509191401 | 73 | 57 | 2.0 | 9.0 | 0.00 | 0.00 | 0.00 | 45 | 1018.9 |
| 20260509191301 | 73 | 145 | 2.0 | 9.0 | 0.00 | 0.00 | 0.00 | 46 | 1019.0 |
| 20260509191203 | 73 | 92 | 2.0 | 9.0 | 0.00 | 0.00 | 0.00 | 45 | 1019.0 |
| 20260509191102 | 72 | 98 | 2.0 | 9.0 | 0.00 | 0.00 | 0.00 | 46 | 1019.0 |
| 20260509191000 | 72 | 186 | 1.0 | 9.0 | 0.00 | 0.00 | 0.00 | 47 | 1019.0 |
| 20260509190928 | 72 | 42 | 3.0 | 9.0 | 0.00 | 0.00 | 0.00 | 45 | 1018.9 |
| 20260509190913 | 72 | 145 | 3.0 | 9.0 | 0.00 | 0.00 | 0.00 | 44 | 1019.0 |
| 20260509190849 | 72 | 151 | 3.0 | 9.0 | 0.00 | 0.00 | 0.00 | 44 | 1019.0 |
| 20260509190617 | 72 | 142 | 3.0 | 6.0 | 0.00 | 0.00 | 0.00 | 45 | 1019.1 |
| 20260509190257 | 72 | 59 | 2.0 | 6.0 | 0.00 | 0.00 | 0.00 | 46 | 1019.1 |
| 20260509190223 | 72 | 48 | 2.0 | 6.0 | 0.00 | 0.00 | 0.00 | 47 | 1019.1 |
| 20260509190212 | 71 | 136 | 2.0 | 6.0 | 0.00 | 0.00 | 0.00 | 47 | 1019.1 |
| 20260509185901 | 71 | 146 | 4.0 | 7.0 | 0.00 | 0.00 | 0.00 | 46 | 1019.1 |
| 20260509185845 | 71 | 5 | 4.0 | 8.0 | 0.00 | 0.00 | 0.00 | 47 | 1019.1 |
| 20260509185823 | 71 | 352 | 2.0 | 8.0 | 0.00 | 0.00 | 0.00 | 46 | 1019.1 |
| 20260509185809 | 71 | 350 | 2.0 | 8.0 | 0.00 | 0.00 | 0.00 | 47 | 1019.2 |
| 20260509185758 | 71 | 5 | 2.0 | 8.0 | 0.00 | 0.00 | 0.00 | 47 | 1019.2 |
| 20260509185524 | 71 | 67 | 2.0 | 8.0 | 0.00 | 0.00 | 0.00 | 47 | 1019.3 |
| 20260509185500 | 71 | 108 | 3.0 | 8.0 | 0.00 | 0.00 | 0.00 | 46 | 1019.2 |
| 20260509185007 | 71 | 150 | 2.0 | 8.0 | 0.00 | 0.00 | 0.00 | 48 | 1019.3 |
| 20260509184645 | 71 | 119 | 4.0 | 8.0 | 0.00 | 0.00 | 0.00 | 47 | 1019.3 |
| 20260509184538 | 71 | 107 | 4.0 | 9.0 | 0.00 | 0.00 | 0.00 | 48 | 1019.3 |
| 20260509184453 | 71 | 80 | 2.0 | 9.0 | 0.00 | 0.00 | 0.00 | 47 | 1019.3 |
| 20260509184337 | 71 | 106 | 2.0 | 9.0 | 0.00 | 0.00 | 0.00 | 47 | 1019.3 |
| 20260509184256 | 71 | 36 | 3.0 | 9.0 | 0.00 | 0.00 | 0.00 | 45 | 1019.3 |
| 20260509184228 | 71 | 352 | 3.0 | 9.0 | 0.00 | 0.00 | 0.00 | 45 | 1019.3 |
| 20260509184217 | 71 | 30 | 2.0 | 9.0 | 0.00 | 0.00 | 0.00 | 46 | 1019.3 |
| 20260509184203 | 71 | 11 | 3.0 | 9.0 | 0.00 | 0.00 | 0.00 | 47 | 1019.4 |
| 20260509184152 | 71 | 0 | 4.0 | 9.0 | 0.00 | 0.00 | 0.00 | 47 | 1019.4 |
| 20260509183909 | 71 | 97 | 4.0 | 9.0 | 0.00 | 0.00 | 0.00 | 46 | 1019.5 |
| 20260509183857 | 71 | 73 | 3.0 | 8.0 | 0.00 | 0.00 | 0.00 | 48 | 1019.5 |
| 20260509183623 | 71 | 44 | 3.0 | 8.0 | 0.00 | 0.00 | 0.00 | 47 | 1019.5 |
| 20260509183030 | 71 | 96 | 3.0 | 8.0 | 0.00 | 0.00 | 0.00 | 47 | 1019.5 |
| 20260509182931 | 71 | 79 | 4.0 | 8.0 | 0.00 | 0.00 | 0.00 | 46 | 1019.5 |
| 20260509182830 | 71 | 78 | 2.0 | 8.0 | 0.00 | 0.00 | 0.00 | 48 | 1019.5 |
| 20260509182730 | 71 | 39 | 2.0 | 9.0 | 0.00 | 0.00 | 0.00 | 47 | 1019.5 |
| 20260509182630 | 71 | 70 | 3.0 | 9.0 | 0.00 | 0.00 | 0.00 | 47 | 1019.5 |
| 20260509182529 | 70 | 94 | 3.0 | 9.0 | 0.00 | 0.00 | 0.00 | 47 | 1019.5 |
| 20260509182432 | 70 | 76 | 3.0 | 9.0 | 0.00 | 0.00 | 0.00 | 48 | 1019.5 |
| 20260509182328 | 70 | 55 | 4.0 | 9.0 | 0.00 | 0.00 | 0.00 | 48 | 1019.5 |
| 20260509182231 | 70 | 67 | 3.0 | 9.0 | 0.00 | 0.00 | 0.00 | 48 | 1019.5 |
| 20260509182131 | 70 | 53 | 2.0 | 9.0 | 0.00 | 0.00 | 0.00 | 49 | 1019.5 |
| 20260509182029 | 70 | 325 | 3.0 | 9.0 | 0.00 | 0.00 | 0.00 | 47 | 1019.5 |
| 20260509182001 | 70 | 60 | 4.0 | 9.0 | 0.00 | 0.00 | 0.00 | 48 | 1019.5 |
| 20260509181951 | 70 | 61 | 4.0 | 9.0 | 0.00 | 0.00 | 0.00 | 48 | 1019.5 |
| 20260509181629 | 70 | 79 | 3.0 | 8.0 | 0.00 | 0.00 | 0.00 | 48 | 1019.5 |
| 20260509181529 | 70 | 5 | 3.0 | 8.0 | 0.00 | 0.00 | 0.00 | 48 | 1019.5 |
| 20260509181433 | 70 | 9 | 2.0 | 8.0 | 0.00 | 0.00 | 0.00 | 48 | 1019.5 |
| 20260509181329 | 70 | 352 | 2.0 | 7.0 | 0.00 | 0.00 | 0.00 | 47 | 1019.6 |
| 20260509181312 | 70 | 270 | 2.0 | 7.0 | 0.00 | 0.00 | 0.00 | 47 | 1019.6 |
| 20260509181248 | 70 | 35 | 2.0 | 7.0 | 0.00 | 0.00 | 0.00 | 47 | 1019.6 |
| 20260509180929 | 70 | 10 | 3.0 | 7.0 | 0.00 | 0.00 | 0.00 | 47 | 1019.7 |
| 20260509180830 | 70 | 279 | 3.0 | 7.0 | 0.00 | 0.00 | 0.00 | 45 | 1019.7 |
| 20260509180730 | 70 | 268 | 3.0 | 4.0 | 0.00 | 0.00 | 0.00 | 47 | 1019.7 |
| 20260509180630 | 70 | 230 | 2.0 | 4.0 | 0.00 | 0.00 | 0.00 | 47 | 1019.7 |
| 20260509180531 | 70 | 315 | 2.0 | 4.0 | 0.00 | 0.00 | 0.00 | 47 | 1019.7 |
| 20260509180432 | 70 | 305 | 2.0 | 4.0 | 0.00 | 0.00 | 0.00 | 48 | 1019.7 |
| 20260509180331 | 70 | 340 | 2.0 | 4.0 | 0.00 | 0.00 | 0.00 | 48 | 1019.7 |
| 20260509180229 | 70 | 336 | 2.0 | 4.0 | 0.00 | 0.00 | 0.00 | 47 | 1019.7 |
| 20260509180130 | 70 | 298 | 2.0 | 4.0 | 0.00 | 0.00 | 0.00 | 49 | 1019.7 |
| 20260509180029 | 70 | 323 | 2.0 | 4.0 | 0.00 | 0.00 | 0.00 | 48 | 1019.7 |
| 20260509175929 | 69 | 334 | 2.0 | 6.0 | 0.00 | 0.00 | 0.00 | 49 | 1019.7 |
| 20260509175829 | 69 | 348 | 2.0 | 6.0 | 0.00 | 0.00 | 0.00 | 47 | 1019.7 |
| 20260509175732 | 69 | 18 | 2.0 | 6.0 | 0.00 | 0.00 | 0.00 | 48 | 1019.7 |
| 20260509175702 | 69 | 346 | 2.0 | 6.0 | 0.00 | 0.00 | 0.00 | 47 | 1019.8 |
| 20260509175650 | 69 | 122 | 1.0 | 6.0 | 0.00 | 0.00 | 0.00 | 47 | 1019.8 |
| 20260509175331 | 69 | 342 | 3.0 | 6.0 | 0.00 | 0.00 | 0.00 | 48 | 1019.8 |
| 20260509175314 | 69 | 13 | 3.0 | 6.0 | 0.00 | 0.00 | 0.00 | 48 | 1019.7 |
| 20260509175250 | 69 | 66 | 3.0 | 6.0 | 0.00 | 0.00 | 0.00 | 49 | 1019.8 |
| 20260509174932 | 69 | 346 | 2.0 | 5.0 | 0.00 | 0.00 | 0.00 | 50 | 1019.7 |
| 20260509174828 | 69 | 262 | 2.0 | 5.0 | 0.00 | 0.00 | 0.00 | 47 | 1019.8 |
| 20260509174728 | 69 | 274 | 2.0 | 5.0 | 0.00 | 0.00 | 0.00 | 50 | 1019.8 |
| 20260509174639 | 69 | 279 | 2.0 | 5.0 | 0.00 | 0.00 | 0.00 | 48 | 1019.8 |
| 20260509174531 | 69 | 29 | 2.0 | 5.0 | 0.00 | 0.00 | 0.00 | 49 | 1019.8 |
| 20260509174430 | 69 | 336 | 2.0 | 5.0 | 0.00 | 0.00 | 0.00 | 49 | 1019.8 |
| 20260509174331 | 69 | 288 | 3.0 | 5.0 | 0.00 | 0.00 | 0.00 | 48 | 1019.8 |
| 20260509174228 | 69 | 287 | 3.0 | 5.0 | 0.00 | 0.00 | 0.00 | 49 | 1019.8 |
| 20260509174130 | 69 | 321 | 3.0 | 5.0 | 0.00 | 0.00 | 0.00 | 49 | 1019.8 |
| 20260509174027 | 69 | 279 | 2.0 | 5.0 | 0.00 | 0.00 | 0.00 | 49 | 1019.8 |
| 20260509173926 | 70 | 285 | 2.0 | 5.0 | 0.00 | 0.00 | 0.00 | 50 | 1019.8 |
| 20260509173825 | 70 | 289 | 2.0 | 5.0 | 0.00 | 0.00 | 0.00 | 50 | 1019.8 |
| 20260509173725 | 70 | 322 | 2.0 | 5.0 | 0.00 | 0.00 | 0.00 | 49 | 1019.9 |
| 20260509173622 | 70 | 333 | 2.0 | 5.0 | 0.00 | 0.00 | 0.00 | 50 | 1019.9 |
| 20260509173553 | 70 | 352 | 2.0 | 5.0 | 0.00 | 0.00 | 0.00 | 49 | 1019.8 |
| 20260509173538 | 70 | 14 | 3.0 | 5.0 | 0.00 | 0.00 | 0.00 | 49 | 1019.9 |
| 20260509173217 | 70 | 347 | 1.0 | 5.0 | 0.00 | 0.00 | 0.00 | 49 | 1019.9 |
| 20260509173146 | 70 | 120 | 2.0 | 3.0 | 0.00 | 0.00 | 0.00 | 48 | 1019.9 |
| 20260509173135 | 70 | 65 | 2.0 | 3.0 | 0.00 | 0.00 | 0.00 | 50 | 1019.9 |
| 20260509172856 | 69 | 99 | 2.0 | 4.0 | 0.00 | 0.00 | 0.00 | 48 | 1019.9 |
| 20260509172847 | 69 | 73 | 2.0 | 4.0 | 0.00 | 0.00 | 0.00 | 48 | 1019.9 |
| 20260509172512 | 69 | 30 | 1.0 | 4.0 | 0.00 | 0.00 | 0.00 | 49 | 1019.8 |
| 20260509172410 | 69 | 65 | 1.0 | 4.0 | 0.00 | 0.00 | 0.00 | 49 | 1019.8 |
| 20260509172310 | 69 | 343 | 1.0 | 4.0 | 0.00 | 0.00 | 0.00 | 49 | 1019.8 |
| 20260509172209 | 68 | 32 | 1.0 | 4.0 | 0.00 | 0.00 | 0.00 | 50 | 1019.8 |
| 20260509172108 | 68 | 125 | 1.0 | 4.0 | 0.00 | 0.00 | 0.00 | 51 | 1019.9 |
| 20260509172038 | 68 | 115 | 2.0 | 4.0 | 0.00 | 0.00 | 0.00 | 50 | 1019.9 |
| 20260509172026 | 68 | 213 | 2.0 | 4.0 | 0.00 | 0.00 | 0.00 | 50 | 1019.9 |
| 20260509171703 | 68 | 63 | 2.0 | 6.0 | 0.00 | 0.00 | 0.00 | 51 | 1019.8 |
| 20260509171605 | 68 | 104 | 2.0 | 6.0 | 0.00 | 0.00 | 0.00 | 52 | 1019.9 |
| 20260509171502 | 67 | 145 | 2.0 | 6.0 | 0.00 | 0.00 | 0.00 | 52 | 1019.9 |
| 20260509171432 | 67 | 314 | 2.0 | 6.0 | 0.00 | 0.00 | 0.00 | 51 | 1019.8 |
| 20260509171417 | 67 | 302 | 3.0 | 6.0 | 0.00 | 0.00 | 0.00 | 52 | 1019.8 |
| 20260509171406 | 67 | 38 | 3.0 | 6.0 | 0.00 | 0.00 | 0.00 | 51 | 1019.9 |
| 20260509171002 | 67 | 61 | 3.0 | 6.0 | 0.00 | 0.00 | 0.00 | 51 | 1019.9 |
| 20260509170901 | 67 | 86 | 2.0 | 6.0 | 0.00 | 0.00 | 0.00 | 52 | 1020.0 |
| 20260509170802 | 67 | 93 | 3.0 | 6.0 | 0.00 | 0.00 | 0.00 | 53 | 1020.0 |
| 20260509170701 | 67 | 42 | 3.0 | 6.0 | 0.00 | 0.00 | 0.00 | 52 | 1020.1 |
| 20260509170602 | 67 | 43 | 2.0 | 6.0 | 0.00 | 0.00 | 0.00 | 51 | 1020.0 |
| 20260509170502 | 67 | 76 | 2.0 | 5.0 | 0.00 | 0.00 | 0.00 | 53 | 1020.0 |
| 20260509170435 | 67 | 123 | 2.0 | 5.0 | 0.00 | 0.00 | 0.00 | 53 | 1020.0 |
| 20260509170423 | 67 | 76 | 2.0 | 5.0 | 0.00 | 0.00 | 0.00 | 53 | 1019.9 |
| 20260509170059 | 67 | 342 | 2.0 | 7.0 | 0.00 | 0.00 | 0.00 | 52 | 1019.9 |
| 20260509170032 | 67 | 249 | 2.0 | 7.0 | 0.00 | 0.00 | 0.00 | 53 | 1020.0 |
| 20260509170019 | 67 | 347 | 2.0 | 7.0 | 0.00 | 0.00 | 0.00 | 53 | 1019.9 |
| 20260509165652 | 67 | 273 | 3.0 | 7.0 | 0.00 | 0.00 | 0.00 | 53 | 1019.9 |
| 20260509165551 | 67 | 346 | 3.0 | 7.0 | 0.00 | 0.00 | 0.00 | 53 | 1019.9 |
| 20260509165452 | 67 | 329 | 4.0 | 7.0 | 0.00 | 0.00 | 0.00 | 53 | 1019.9 |
| 20260509165349 | 67 | 336 | 3.0 | 7.0 | 0.00 | 0.00 | 0.00 | 53 | 1019.9 |
| 20260509165252 | 67 | 76 | 2.0 | 5.0 | 0.00 | 0.00 | 0.00 | 52 | 1019.9 |
| 20260509165148 | 67 | 23 | 3.0 | 5.0 | 0.00 | 0.00 | 0.00 | 52 | 1019.9 |
| 20260509165050 | 67 | 352 | 2.0 | 5.0 | 0.00 | 0.00 | 0.00 | 52 | 1020.0 |
| 20260509164946 | 67 | 324 | 2.0 | 4.0 | 0.00 | 0.00 | 0.00 | 53 | 1020.0 |
| 20260509164845 | 67 | 328 | 2.0 | 4.0 | 0.00 | 0.00 | 0.00 | 53 | 1020.0 |
| 20260509164826 | 67 | 0 | 2.0 | 4.0 | 0.00 | 0.00 | 0.00 | 54 | 1020.0 |
| 20260509164815 | 67 | 319 | 2.0 | 5.0 | 0.00 | 0.00 | 0.00 | 53 | 1020.0 |
| 20260509164442 | 67 | 340 | 2.0 | 5.0 | 0.00 | 0.00 | 0.00 | 54 | 1019.9 |
| 20260509164342 | 67 | 13 | 2.0 | 5.0 | 0.00 | 0.00 | 0.00 | 55 | 1019.9 |
| 20260509164309 | 67 | 5 | 2.0 | 5.0 | 0.00 | 0.00 | 0.00 | 53 | 1019.9 |
| 20260509164255 | 67 | 69 | 1.0 | 5.0 | 0.00 | 0.00 | 0.00 | 54 | 1020.0 |
| 20260509164232 | 67 | 14 | 1.0 | 5.0 | 0.00 | 0.00 | 0.00 | 54 | 1020.0 |
| 20260509164221 | 67 | 142 | 2.0 | 5.0 | 0.00 | 0.00 | 0.00 | 54 | 1019.9 |
| 20260509164139 | 67 | 98 | 2.0 | 5.0 | 0.00 | 0.00 | 0.00 | 54 | 1020.0 |
| 20260509163909 | 66 | 67 | 0.0 | 3.0 | 0.00 | 0.00 | 0.00 | 55 | 1020.1 |
| 20260509163843 | 66 | 279 | 1.0 | 4.0 | 0.00 | 0.00 | 0.00 | 54 | 1020.0 |
| 20260509163350 | 66 | 89 | 1.0 | 4.0 | 0.00 | 0.00 | 0.00 | 55 | 1020.0 |
| 20260509163338 | 66 | 54 | 1.0 | 5.0 | 0.00 | 0.00 | 0.00 | 56 | 1020.0 |
| 20260509163052 | 66 | 267 | 2.0 | 5.0 | 0.00 | 0.00 | 0.00 | 55 | 1020.0 |
| 20260509162732 | 66 | 296 | 2.0 | 5.0 | 0.00 | 0.00 | 0.00 | 55 | 1020.0 |
| 20260509162630 | 66 | 349 | 2.0 | 5.0 | 0.00 | 0.00 | 0.00 | 56 | 1020.1 |
| 20260509162530 | 66 | 60 | 2.0 | 5.0 | 0.00 | 0.00 | 0.00 | 56 | 1020.1 |
| 20260509162432 | 66 | 59 | 3.0 | 5.0 | 0.00 | 0.00 | 0.00 | 55 | 1020.1 |
| 20260509162330 | 66 | 15 | 3.0 | 5.0 | 0.00 | 0.00 | 0.00 | 55 | 1020.1 |
| 20260509162229 | 66 | 38 | 2.0 | 5.0 | 0.00 | 0.00 | 0.00 | 56 | 1020.1 |
| 20260509162131 | 66 | 86 | 2.0 | 5.0 | 0.00 | 0.00 | 0.00 | 55 | 1020.1 |
| 20260509162029 | 66 | 139 | 2.0 | 4.0 | 0.00 | 0.00 | 0.00 | 55 | 1020.1 |
| 20260509161929 | 65 | 22 | 1.0 | 4.0 | 0.00 | 0.00 | 0.00 | 56 | 1020.1 |
| 20260509161829 | 65 | 144 | 1.0 | 4.0 | 0.00 | 0.00 | 0.00 | 56 | 1020.2 |
| 20260509161728 | 65 | 348 | 2.0 | 4.0 | 0.00 | 0.00 | 0.00 | 56 | 1020.2 |
| 20260509161629 | 65 | 103 | 2.0 | 4.0 | 0.00 | 0.00 | 0.00 | 57 | 1020.2 |
| 20260509161529 | 65 | 78 | 2.0 | 4.0 | 0.00 | 0.00 | 0.00 | 57 | 1020.1 |
| 20260509161431 | 65 | 10 | 2.0 | 4.0 | 0.00 | 0.00 | 0.00 | 56 | 1020.1 |
| 20260509161312 | 65 | 295 | 2.0 | 4.0 | 0.00 | 0.00 | 0.00 | 57 | 1020.1 |
| 20260509161215 | 65 | 14 | 2.0 | 4.0 | 0.00 | 0.00 | 0.00 | 57 | 1020.2 |
| 20260509161112 | 65 | 51 | 3.0 | 4.0 | 0.00 | 0.00 | 0.00 | 57 | 1020.0 |
| 20260509161010 | 65 | 81 | 3.0 | 4.0 | 0.00 | 0.00 | 0.00 | 57 | 1020.1 |
| 20260509160909 | 65 | 93 | 2.0 | 4.0 | 0.00 | 0.00 | 0.00 | 57 | 1020.1 |
| 20260509160809 | 65 | 5 | 1.0 | 4.0 | 0.00 | 0.00 | 0.00 | 57 | 1020.1 |
| 20260509160750 | 65 | 317 | 1.0 | 4.0 | 0.00 | 0.00 | 0.00 | 57 | 1020.1 |
| 20260509160740 | 65 | 138 | 2.0 | 4.0 | 0.00 | 0.00 | 0.00 | 57 | 1020.1 |